FW6434 Weather Reports


Display with metric or nautical units.
time (UTC)temp
F
wind
direction
speed
MPH
gust
MPH
rain 1hr
in
rain 24hr
in
rain mn
in
humidity
%
barometer
mb
20260510082121 60 174 0.0 8.0 0.00 0.00 0.00 59 1016.2
20260510082029 60 112 0.0 8.0 0.00 0.00 0.00 59 1016.2
20260510082022 60 112 0.0 8.0 0.00 0.00 0.00 58 1016.4
20260510081922 59 92 1.0 10.0 0.00 0.00 0.00 59 1016.4
20260510081821 58 101 1.0 10.0 0.00 0.00 0.00 61 1016.3
20260510081721 58 103 0.0 10.0 0.00 0.00 0.00 60 1016.5
20260510081620 59 124 1.0 10.0 0.00 0.00 0.00 60 1016.2
20260510081529 59 98 3.0 10.0 0.00 0.00 0.00 59 1016.2
20260510081521 59 52 4.0 10.0 0.00 0.00 0.00 59 1016.1
20260510081420 59 55 5.0 10.0 0.00 0.00 0.00 58 1016.1
20260510081323 59 50 2.0 10.0 0.00 0.00 0.00 59 1016.5
20260510081221 59 44 2.0 10.0 0.00 0.00 0.00 60 1016.3
20260510081121 58 154 2.0 11.0 0.00 0.00 0.00 61 1016.3
20260510081029 58 74 1.0 11.0 0.00 0.00 0.00 63 1016.3
20260510081021 58 95 1.0 11.0 0.00 0.00 0.00 61 1016.1
20260510080923 58 74 1.0 11.0 0.00 0.00 0.00 60 1016.3
20260510080821 58 163 4.0 11.0 0.00 0.00 0.00 60 1016.2
20260510080804 58 54 3.0 11.0 0.00 0.00 0.00 61 1016.4
20260510080748 58 153 3.0 11.0 0.00 0.00 0.00 60 1016.4
20260510080731 58 75 2.0 11.0 0.00 0.00 0.00 60 1016.4
20260510080421 58 188 1.0 11.0 0.00 0.00 0.00 60 1016.6
20260510080321 58 96 1.0 11.0 0.00 0.00 0.00 60 1016.4
20260510080222 58 198 8.0 11.0 0.00 0.00 0.00 59 1016.4
20260510080158 58 204 2.0 11.0 0.00 0.00 0.00 61 1016.6
20260510080141 58 89 1.0 11.0 0.00 0.00 0.00 61 1016.6
20260510080134 58 89 1.0 11.0 0.00 0.00 0.00 60 1016.6
20260510080118 58 38 1.0 11.0 0.00 0.00 0.00 61 1016.6
20260510075842 58 190 1.0 8.0 0.00 0.00 0.00 60 1016.3
20260510075529 58 65 1.0 7.0 0.00 0.00 0.00 61 1016.3
20260510075521 58 98 3.0 7.0 0.00 0.00 0.00 61 1016.5
20260510075421 59 78 0.0 7.0 0.00 0.00 0.00 60 1016.4
20260510075321 59 170 2.0 7.0 0.00 0.00 0.00 59 1016.4
20260510075223 59 172 3.0 6.0 0.00 0.00 0.00 61 1016.2
20260510075206 59 102 1.0 6.0 0.00 0.00 0.00 62 1016.5
20260510075149 58 81 3.0 6.0 0.00 0.00 0.00 61 1016.5
20260510075142 58 35 1.0 6.0 0.00 0.00 0.00 62 1016.6
20260510074822 59 71 2.0 6.0 0.00 0.00 0.00 60 1016.4
20260510074721 59 71 1.0 6.0 0.00 0.00 0.00 60 1016.4
20260510074620 59 54 1.0 6.0 0.00 0.00 0.00 62 1016.3
20260510074529 59 57 3.0 6.0 0.00 0.00 0.00 62 1016.3
20260510074521 59 57 3.0 6.0 0.00 0.00 0.00 61 1016.4
20260510074421 59 17 4.0 6.0 0.00 0.00 0.00 61 1016.6
20260510074320 58 65 0.0 6.0 0.00 0.00 0.00 64 1016.6
20260510074222 58 63 2.0 6.0 0.00 0.00 0.00 64 1016.5
20260510074207 58 211 2.0 6.0 0.00 0.00 0.00 62 1016.5
20260510074147 58 72 3.0 6.0 0.00 0.00 0.00 63 1016.5
20260510074141 58 72 3.0 6.0 0.00 0.00 0.00 63 1016.4
20260510073822 59 95 3.0 6.0 0.00 0.00 0.00 62 1016.5
20260510073721 59 113 2.0 6.0 0.00 0.00 0.00 63 1016.7
20260510073621 59 57 2.0 8.0 0.00 0.00 0.00 68 1016.6
20260510073529 58 151 0.0 8.0 0.00 0.00 0.00 68 1016.6
20260510073522 58 188 0.0 8.0 0.00 0.00 0.00 68 1016.6
20260510073421 58 56 2.0 8.0 0.00 0.00 0.00 66 1016.7
20260510073322 58 57 4.0 8.0 0.00 0.00 0.00 65 1016.5
20260510073221 58 161 0.0 8.0 0.00 0.00 0.00 66 1016.5
20260510073120 58 229 2.0 8.0 0.00 0.00 0.00 66 1016.5
20260510073029 57 180 0.0 8.0 0.00 0.00 0.00 66 1016.5
20260510073020 57 101 1.0 8.0 0.00 0.00 0.00 66 1016.5
20260510072921 57 63 1.0 8.0 0.00 0.00 0.00 67 1016.5
20260510072822 58 114 2.0 8.0 0.00 0.00 0.00 66 1016.5
20260510072722 58 41 3.0 8.0 0.00 0.00 0.00 66 1016.6
20260510072708 58 175 0.0 6.0 0.00 0.00 0.00 67 1016.7
20260510072659 58 45 2.0 4.0 0.00 0.00 0.00 67 1016.4
20260510072643 57 130 0.0 4.0 0.00 0.00 0.00 67 1016.4
20260510072637 57 131 0.0 4.0 0.00 0.00 0.00 67 1016.5
20260510072621 57 44 2.0 4.0 0.00 0.00 0.00 67 1016.7
20260510072604 57 72 2.0 4.0 0.00 0.00 0.00 67 1016.6
20260510072104 58 105 2.0 4.0 0.00 0.00 0.00 66 1016.4
20260510072057 58 105 2.0 4.0 0.00 0.00 0.00 66 1016.8
20260510072041 58 170 2.0 4.0 0.00 0.00 0.00 65 1016.8
20260510072025 58 177 0.0 6.0 0.00 0.00 0.00 67 1016.7
20260510071749 58 174 0.0 6.0 0.00 0.00 0.00 66 1016.7
20260510071522 58 154 0.0 6.0 0.00 0.00 0.00 67 1016.8
20260510071501 57 47 2.0 8.0 0.00 0.00 0.00 67 1016.6
20260510071457 56 68 3.0 8.0 0.00 0.00 0.00 66 1016.5
20260510071448 57 171 0.0 7.0 0.00 0.00 0.00 68 1016.8
20260510071433 57 66 0.0 7.0 0.00 0.00 0.00 69 1016.8
20260510071417 57 104 1.0 7.0 0.00 0.00 0.00 66 1016.7
20260510071402 57 85 2.0 7.0 0.00 0.00 0.00 66 1016.6
20260510071132 57 92 2.0 8.0 0.00 0.00 0.00 67 1016.8
20260510071116 57 48 3.0 8.0 0.00 0.00 0.00 68 1016.6
20260510071101 56 98 1.0 8.0 0.00 0.00 0.00 66 1016.9
20260510071045 56 67 0.0 8.0 0.00 0.00 0.00 68 1016.6
20260510071029 56 51 2.0 8.0 0.00 0.00 0.00 67 1016.5
20260510070540 56 103 3.0 8.0 0.00 0.00 0.00 67 1016.6
20260510070221 56 72 0.0 8.0 0.00 0.00 0.00 68 1016.7
20260510070121 56 44 3.0 8.0 0.00 0.00 0.00 67 1016.6
20260510070029 56 58 1.0 7.0 0.00 0.00 0.00 68 1016.6
20260510070021 56 58 1.0 7.0 0.00 0.00 0.00 67 1016.8
20260510065921 56 103 2.0 7.0 0.00 0.00 0.00 67 1016.8
20260510065822 56 70 2.0 7.0 0.00 0.00 0.00 68 1016.3
20260510065721 56 169 1.0 7.0 0.00 0.00 0.00 68 1016.6
20260510065621 56 83 1.0 7.0 0.00 0.00 0.00 68 1016.7
20260510065530 56 150 2.0 7.0 0.00 0.00 0.00 68 1016.7
20260510065521 56 74 3.0 7.0 0.00 0.00 0.00 68 1016.6
20260510065422 56 125 3.0 7.0 0.00 0.00 0.00 68 1016.8
20260510065357 55 74 0.0 7.0 0.00 0.00 0.00 70 1016.6
20260510065341 55 188 0.0 7.0 0.00 0.00 0.00 69 1016.6
20260510065029 56 69 6.0 8.0 0.00 0.00 0.00 68 1016.5
20260510065022 56 50 2.0 8.0 0.00 0.00 0.00 68 1016.5
20260510064920 56 64 2.0 8.0 0.00 0.00 0.00 69 1016.5
20260510064821 56 65 2.0 8.0 0.00 0.00 0.00 72 1016.6
20260510064721 56 127 1.0 8.0 0.00 0.00 0.00 71 1016.8
20260510064622 55 65 1.0 8.0 0.00 0.00 0.00 72 1016.5
20260510064529 55 175 1.0 8.0 0.00 0.00 0.00 72 1016.5
20260510064421 55 64 1.0 8.0 0.00 0.00 0.00 72 1016.6
20260510064323 55 82 3.0 8.0 0.00 0.00 0.00 72 1016.3
20260510064222 55 71 0.0 7.0 0.00 0.00 0.00 73 1016.3
20260510064123 55 102 0.0 7.0 0.00 0.00 0.00 74 1016.4
20260510064111 54 61 2.0 7.0 0.00 0.00 0.00 74 1016.4
20260510064105 53 64 1.0 8.0 0.00 0.00 0.00 78 1016.4
20260510064059 53 85 1.0 6.0 0.00 0.00 0.00 79 1016.6
20260510064042 55 64 1.0 7.0 0.00 0.00 0.00 73 1016.4
20260510064026 55 110 3.0 7.0 0.00 0.00 0.00 73 1016.5
20260510064010 55 84 1.0 7.0 0.00 0.00 0.00 74 1016.3
20260510063955 54 353 2.0 7.0 0.00 0.00 0.00 74 1016.7
20260510063939 54 59 2.0 7.0 0.00 0.00 0.00 74 1016.4
20260510063712 54 32 4.0 7.0 0.00 0.00 0.00 74 1016.5
20260510063436 55 53 3.0 7.0 0.00 0.00 0.00 76 1016.5
20260510063420 54 57 1.0 8.0 0.00 0.00 0.00 77 1016.4
20260510063142 53 153 0.0 8.0 0.00 0.00 0.00 76 1016.7
20260510063135 53 66 1.0 8.0 0.00 0.00 0.00 76 1016.4
20260510063120 53 96 0.0 8.0 0.00 0.00 0.00 77 1016.5
20260510063104 53 66 4.0 8.0 0.00 0.00 0.00 77 1016.5
20260510063048 53 55 4.0 8.0 0.00 0.00 0.00 77 1016.6
20260510062601 53 134 0.0 8.0 0.00 0.00 0.00 78 1016.5
20260510062545 53 109 2.0 8.0 0.00 0.00 0.00 77 1016.6
20260510062529 53 48 3.0 8.0 0.00 0.00 0.00 77 1016.5
20260510062512 53 87 1.0 6.0 0.00 0.00 0.00 78 1016.5
20260510062020 53 85 1.0 6.0 0.00 0.00 0.00 79 1016.5
20260510061921 53 55 2.0 6.0 0.00 0.00 0.00 79 1016.7
20260510061856 53 69 2.0 6.0 0.00 0.00 0.00 80 1016.6
20260510061840 53 54 1.0 4.0 0.00 0.00 0.00 80 1016.6
20260510061529 53 69 2.0 4.0 0.00 0.00 0.00 81 1016.7
20260510061521 53 57 4.0 4.0 0.00 0.00 0.00 81 1016.8
20260510061422 53 79 2.0 7.0 0.00 0.00 0.00 81 1016.7
20260510061321 53 80 0.0 7.0 0.00 0.00 0.00 83 1016.7
20260510061222 53 117 0.0 7.0 0.00 0.00 0.00 82 1016.8
20260510061206 53 78 1.0 7.0 0.00 0.00 0.00 82 1016.8
20260510061149 53 116 1.0 7.0 0.00 0.00 0.00 82 1016.8
20260510061142 53 174 0.0 7.0 0.00 0.00 0.00 83 1016.4
20260510060822 52 151 0.0 7.0 0.00 0.00 0.00 84 1016.7
20260510060721 52 91 2.0 7.0 0.00 0.00 0.00 83 1016.7
20260510060622 52 44 3.0 7.0 0.00 0.00 0.00 84 1016.5
20260510060529 52 91 1.0 7.0 0.00 0.00 0.00 84 1016.5
20260510060521 52 64 3.0 7.0 0.00 0.00 0.00 84 1016.6
20260510060449 51 126 0.0 4.0 0.00 0.00 0.00 87 1016.6
20260510060445 51 129 0.0 2.0 0.00 0.00 0.00 89 1016.9
20260510060440 51 63 1.0 4.0 0.00 0.00 0.00 89 1017.0
20260510060435 50 77 0.0 4.0 0.00 0.00 0.00 90 1016.6
20260510060428 52 53 4.0 7.0 0.00 0.00 0.00 84 1016.6
20260510060414 52 70 2.0 6.0 0.00 0.00 0.00 85 1016.5
20260510060359 52 61 1.0 6.0 0.00 0.00 0.00 84 1016.5
20260510060343 52 48 0.0 6.0 0.00 0.00 0.00 86 1016.7
20260510060326 52 103 0.0 6.0 0.00 0.00 0.00 86 1016.7
20260510060319 52 103 0.0 6.0 0.00 0.00 0.00 85 1016.6
20260510060042 51 89 0.0 6.0 0.00 0.00 0.00 86 1016.8
20260510060027 51 90 4.0 6.0 0.00 0.00 0.00 86 1016.6
20260510060010 51 119 0.0 4.0 0.00 0.00 0.00 87 1016.6
20260510055742 51 142 0.0 4.0 0.00 0.00 0.00 87 1016.6
20260510055726 52 73 2.0 3.0 0.00 0.00 0.00 86 1016.6
20260510055709 52 49 1.0 2.0 0.00 0.00 0.00 88 1016.7
20260510055653 51 50 1.0 2.0 0.00 0.00 0.00 89 1016.7
20260510055638 51 69 0.0 2.0 0.00 0.00 0.00 88 1016.9
20260510055409 51 118 0.0 2.0 0.00 0.00 0.00 89 1016.6
20260510055354 51 91 0.0 2.0 0.00 0.00 0.00 88 1017.0
20260510055337 51 62 2.0 4.0 0.00 0.00 0.00 89 1016.9
20260510055102 51 60 1.0 4.0 0.00 0.00 0.00 89 1017.0
20260510054835 51 101 0.0 4.0 0.00 0.00 0.00 89 1017.0
20260510054818 51 75 0.0 4.0 0.00 0.00 0.00 90 1016.8
20260510054803 51 79 0.0 4.0 0.00 0.00 0.00 90 1016.8
20260510054747 50 58 0.0 4.0 0.00 0.00 0.00 90 1016.9
20260510054258 50 77 0.0 4.0 0.00 0.00 0.00 90 1017.0
20260510054023 50 110 0.0 3.0 0.00 0.00 0.00 90 1017.1
20260510054008 50 86 0.0 3.0 0.00 0.00 0.00 91 1017.1
20260510053732 50 115 1.0 3.0 0.00 0.00 0.00 91 1017.1
20260510053422 50 72 0.0 3.0 0.00 0.00 0.00 92 1017.0
20260510053410 49 65 1.0 3.0 0.00 0.00 0.00 92 1017.1
20260510053400 49 85 1.0 3.0 0.00 0.00 0.00 91 1016.8
20260510053344 49 79 1.0 3.0 0.00 0.00 0.00 91 1017.0
20260510053327 49 62 2.0 3.0 0.00 0.00 0.00 92 1017.1
20260510053058 49 56 0.0 3.0 0.00 0.00 0.00 92 1016.9
20260510053042 49 58 0.0 3.0 0.00 0.00 0.00 92 1017.0
20260510053025 49 62 1.0 3.0 0.00 0.00 0.00 92 1017.0
20260510053008 49 116 0.0 3.0 0.00 0.00 0.00 93 1017.1
20260510052732 49 133 0.0 3.0 0.00 0.00 0.00 93 1016.9
20260510052448 49 80 0.0 3.0 0.00 0.00 0.00 93 1017.0
20260510052432 49 68 1.0 3.0 0.00 0.00 0.00 93 1017.1
20260510052416 49 57 1.0 3.0 0.00 0.00 0.00 93 1017.2
20260510052400 49 71 0.0 3.0 0.00 0.00 0.00 93 1017.0
20260510052343 49 87 1.0 3.0 0.00 0.00 0.00 94 1017.0
20260510052336 49 87 1.0 3.0 0.00 0.00 0.00 94 1017.2
20260510051841 48 113 0.0 2.0 0.00 0.00 0.00 95 1017.3
20260510051605 48 110 0.0 2.0 0.00 0.00 0.00 95 1017.1
20260510051559 48 64 1.0 2.0 0.00 0.00 0.00 95 1017.2
20260510051542 48 74 1.0 2.0 0.00 0.00 0.00 95 1017.1
20260510051220 47 74 1.0 2.0 0.00 0.00 0.00 96 1017.3
20260510051205 47 128 0.0 1.0 0.00 0.00 0.00 96 1017.4
20260510051148 47 81 0.0 1.0 0.00 0.00 0.00 96 1017.4
20260510051141 47 98 0.0 1.0 0.00 0.00 0.00 96 1017.3
20260510050822 47 104 0.0 1.0 0.00 0.00 0.00 97 1017.1
20260510050721 47 81 0.0 1.0 0.00 0.00 0.00 97 1017.3
20260510050621 47 131 0.0 1.0 0.00 0.00 0.00 98 1017.2
20260510050529 47 88 0.0 1.0 0.00 0.00 0.00 98 1017.2
20260510050521 47 118 0.0 1.0 0.00 0.00 0.00 98 1017.2
20260510050421 46 138 0.0 2.0 0.00 0.00 0.00 98 1017.4
20260510050358 46 155 0.0 2.0 0.00 0.00 0.00 98 1017.4
20260510050341 46 143 0.0 2.0 0.00 0.00 0.00 98 1017.1
20260510050029 46 122 0.0 2.0 0.00 0.00 0.00 99 1017.3
20260510050022 46 122 0.0 2.0 0.00 0.00 0.00 99 1017.2
20260510045921 46 85 0.0 2.0 0.00 0.00 0.00 99 1017.2
20260510045857 46 142 0.0 2.0 0.00 0.00 0.00 99 1017.2
20260510045841 45 122 0.0 3.0 0.00 0.00 0.00 99 1017.3
20260510045604 45 46 2.0 3.0 0.00 0.00 0.00 100 1017.2
20260510045558 45 88 0.0 3.0 0.00 0.00 0.00 100 1017.1
20260510045542 45 60 1.0 3.0 0.00 0.00 0.00 100 1017.3
20260510045253 44 130 0.0 2.0 0.00 0.00 0.00 100 1017.2
20260510045245 45 65 1.0 3.0 0.00 0.00 0.00 100 1017.1
20260510045230 45 106 0.0 3.0 0.00 0.00 0.00 100 1017.3
20260510045211 45 68 0.0 3.0 0.00 0.00 0.00 100 1017.3
20260510045204 45 72 0.0 3.0 0.00 0.00 0.00 100 1017.3
20260510045148 45 74 0.0 3.0 0.00 0.00 0.00 100 1017.1
20260510045132 45 76 1.0 3.0 0.00 0.00 0.00 100 1017.1
20260510045116 45 108 0.0 2.0 0.00 0.00 0.00 100 1017.3
20260510045100 44 69 1.0 2.0 0.00 0.00 0.00 100 1017.3
20260510045044 44 72 0.0 2.0 0.00 0.00 0.00 100 1017.3
20260510045037 44 93 0.0 2.0 0.00 0.00 0.00 100 1017.2
20260510044800 44 76 0.0 2.0 0.00 0.00 0.00 100 1017.4
20260510044524 44 73 0.0 2.0 0.00 0.00 0.00 100 1017.3
20260510044505 44 88 0.0 2.0 0.00 0.00 0.00 100 1017.3
20260510044459 44 88 0.0 2.0 0.00 0.00 0.00 100 1017.2
20260510044442 44 108 0.0 2.0 0.00 0.00 0.00 100 1017.5
20260510044425 44 98 0.0 2.0 0.00 0.00 0.00 100 1017.3
20260510044149 44 112 0.0 2.0 0.00 0.00 0.00 100 1017.2
20260510043922 44 131 0.0 2.0 0.00 0.00 0.00 100 1017.3
20260510043123 44 142 0.0 2.0 0.00 0.00 0.00 100 1017.3
20260510043023 44 131 0.0 2.0 0.00 0.00 0.00 100 1017.3
20260510042921 44 76 0.0 2.0 0.00 0.00 0.00 100 1017.3
20260510042821 43 71 0.0 2.0 0.00 0.00 0.00 100 1017.4
20260510042721 43 79 0.0 2.0 0.00 0.00 0.00 100 1017.5
20260510042621 43 79 1.0 2.0 0.00 0.00 0.00 100 1017.3
20260510042529 43 121 0.0 1.0 0.00 0.00 0.00 100 1017.3
20260510042522 43 124 0.0 1.0 0.00 0.00 0.00 100 1017.3
20260510042422 43 129 0.0 1.0 0.00 0.00 0.00 100 1017.5
20260510042321 43 141 0.0 1.0 0.00 0.00 0.00 100 1017.4
20260510042221 43 139 0.0 1.0 0.00 0.00 0.00 100 1017.2
20260510042120 43 137 0.0 1.0 0.00 0.00 0.00 100 1017.4
20260510042029 43 133 0.0 1.0 0.00 0.00 0.00 100 1017.4
20260510042021 43 133 0.0 1.0 0.00 0.00 0.00 100 1017.5
20260510041921 43 130 0.0 1.0 0.00 0.00 0.00 100 1017.5
20260510041825 43 149 0.0 1.0 0.00 0.00 0.00 100 1017.5
20260510041821 43 150 0.0 1.0 0.00 0.00 0.00 100 1017.4
20260510041805 43 151 0.0 1.0 0.00 0.00 0.00 100 1017.5
20260510041748 43 150 0.0 1.0 0.00 0.00 0.00 100 1017.5
20260510041521 43 148 0.0 0.0 0.00 0.00 0.00 100 1017.5
20260510041421 43 160 0.0 0.0 0.00 0.00 0.00 100 1017.5
20260510041321 43 160 0.0 0.0 0.00 0.00 0.00 100 1017.7
20260510041221 43 159 0.0 0.0 0.00 0.00 0.00 100 1017.3
20260510041123 42 158 0.0 0.0 0.00 0.00 0.00 100 1017.2
20260510041029 42 156 0.0 0.0 0.00 0.00 0.00 100 1017.2
20260510041022 42 156 0.0 0.0 0.00 0.00 0.00 100 1017.3
20260510040921 42 154 0.0 0.0 0.00 0.00 0.00 100 1017.5
20260510040821 42 154 0.0 0.0 0.00 0.00 0.00 100 1017.1
20260510040721 42 158 0.0 0.0 0.00 0.00 0.00 100 1017.5
20260510040621 42 162 0.0 0.0 0.00 0.00 0.00 100 1017.4
20260510040530 42 162 0.0 0.0 0.00 0.00 0.00 100 1017.4
20260510040521 42 162 0.0 0.0 0.00 0.00 0.00 100 1017.3
20260510040421 42 163 0.0 0.0 0.00 0.00 0.00 100 1017.2
20260510040321 42 164 0.0 0.0 0.00 0.00 0.00 100 1017.5
20260510040221 41 165 0.0 0.0 0.00 0.00 0.00 100 1017.2
20260510040121 41 166 0.0 0.0 0.00 0.00 0.00 100 1017.2
20260510040029 41 167 0.0 0.0 0.00 0.00 0.00 100 1017.2
20260510040022 41 167 0.0 0.0 0.00 0.00 0.00 100 1017.4
20260510035922 41 168 0.0 0.0 0.00 0.00 0.00 100 1017.2
20260510035854 41 168 0.0 0.0 0.00 0.00 0.00 100 1017.3
20260510035839 41 168 0.0 0.0 0.00 0.00 0.00 100 1017.5
20260510035824 41 169 0.0 0.0 0.00 0.00 0.00 100 1017.2
20260510035808 41 169 0.0 0.0 0.00 0.00 0.00 100 1017.2
20260510035542 41 169 0.0 0.0 0.00 0.00 0.00 100 1017.4
20260510035221 41 170 0.0 0.0 0.00 0.00 0.00 100 1017.3
20260510035121 41 170 0.0 0.0 0.00 0.00 0.00 100 1017.2
20260510035029 41 170 0.0 0.0 0.00 0.00 0.00 100 1017.2
20260510035021 41 170 0.0 0.0 0.00 0.00 0.00 100 1017.6
20260510034921 41 170 0.0 0.0 0.00 0.00 0.00 100 1017.3
20260510034822 41 170 0.0 0.0 0.00 0.00 0.00 100 1017.4
20260510034722 41 170 0.0 0.0 0.00 0.00 0.00 100 1017.4
20260510034621 41 170 0.0 0.0 0.00 0.00 0.00 100 1017.4
20260510034529 41 170 0.0 0.0 0.00 0.00 0.00 100 1017.4
20260510034521 41 170 0.0 0.0 0.00 0.00 0.00 100 1017.3
20260510034421 41 171 0.0 0.0 0.00 0.00 0.00 100 1017.3
20260510034329 41 170 0.0 0.0 0.00 0.00 0.00 100 1017.3
20260510034324 41 170 0.0 0.0 0.00 0.00 0.00 100 1017.4
20260510034308 41 170 0.0 0.0 0.00 0.00 0.00 100 1017.5
20260510034252 41 170 0.0 0.0 0.00 0.00 0.00 100 1017.3
20260510034021 41 170 0.0 0.0 0.00 0.00 0.00 100 1017.2
20260510033920 41 170 0.0 0.0 0.00 0.00 0.00 100 1017.3
20260510033821 40 171 0.0 0.0 0.00 0.00 0.00 100 1017.5
20260510033804 40 170 0.0 0.0 0.00 0.00 0.00 100 1017.5
20260510033748 40 171 0.0 0.0 0.00 0.00 0.00 100 1017.6
20260510033732 40 171 0.0 0.0 0.00 0.00 0.00 100 1017.6
20260510033456 40 171 0.0 0.0 0.00 0.00 0.00 100 1017.4
20260510033440 40 171 0.0 0.0 0.00 0.00 0.00 100 1017.5
20260510033121 40 171 0.0 0.0 0.00 0.00 0.00 100 1017.6
20260510033029 40 171 0.0 0.0 0.00 0.00 0.00 100 1017.6
20260510033021 40 171 0.0 0.0 0.00 0.00 0.00 100 1017.6
20260510032922 41 171 0.0 0.0 0.00 0.00 0.00 100 1017.5
20260510032821 41 171 0.0 0.0 0.00 0.00 0.00 100 1017.5
20260510032804 41 171 0.0 0.0 0.00 0.00 0.00 100 1017.3
20260510032749 41 171 0.0 0.0 0.00 0.00 0.00 100 1017.6
20260510032733 41 171 0.0 0.0 0.00 0.00 0.00 100 1017.6
20260510032422 41 171 0.0 0.0 0.00 0.00 0.00 100 1017.6
20260510032321 41 171 0.0 0.0 0.00 0.00 0.00 100 1017.4
20260510032221 41 171 0.0 0.0 0.00 0.00 0.00 100 1017.5
20260510032122 41 171 0.0 0.0 0.00 0.00 0.00 100 1017.6
20260510032029 41 171 0.0 0.0 0.00 0.00 0.00 100 1017.6
20260510032021 41 171 0.0 0.0 0.00 0.00 0.00 100 1017.3
20260510031921 41 171 0.0 0.0 0.00 0.00 0.00 100 1017.5
20260510031821 41 171 0.0 0.0 0.00 0.00 0.00 100 1017.6
20260510031721 41 171 0.0 0.0 0.00 0.00 0.00 100 1017.5
20260510031622 41 172 0.0 0.0 0.00 0.00 0.00 100 1017.4
20260510031529 41 171 0.0 0.0 0.00 0.00 0.00 100 1017.4
20260510031520 41 171 0.0 0.0 0.00 0.00 0.00 100 1017.5
20260510031421 41 172 0.0 0.0 0.00 0.00 0.00 100 1017.5
20260510031323 41 172 0.0 0.0 0.00 0.00 0.00 100 1017.4
20260510031220 41 172 0.0 0.0 0.00 0.00 0.00 100 1017.5
20260510031122 41 172 0.0 0.0 0.00 0.00 0.00 100 1017.5
20260510031105 41 172 0.0 0.0 0.00 0.00 0.00 100 1017.5
20260510031059 41 172 0.0 0.0 0.00 0.00 0.00 100 1017.6
20260510031042 41 172 0.0 0.0 0.00 0.00 0.00 100 1017.6
20260510030800 41 172 0.0 0.0 0.00 0.00 0.00 100 1017.7
20260510030744 41 172 0.0 0.0 0.00 0.00 0.00 100 1017.5
20260510030729 41 172 0.0 0.0 0.00 0.00 0.00 100 1017.5
20260510030722 41 172 0.0 0.0 0.00 0.00 0.00 100 1017.5
20260510030705 41 172 0.0 0.0 0.00 0.00 0.00 100 1017.4
20260510030428 41 172 0.0 0.0 0.00 0.00 0.00 100 1017.5
20260510030412 41 172 0.0 0.0 0.00 0.00 0.00 100 1017.6
20260510030354 41 172 0.0 0.0 0.00 0.00 0.00 100 1017.6
20260510025821 40 172 0.0 0.0 0.00 0.00 0.00 100 1017.7
20260510025804 40 172 0.0 0.0 0.00 0.00 0.00 100 1017.4
20260510025747 40 171 0.0 0.0 0.00 0.00 0.00 100 1017.4
20260510025731 40 172 0.0 0.0 0.00 0.00 0.00 100 1017.4
20260510025434 40 172 0.0 0.0 0.00 0.00 0.00 100 1017.5
20260510025419 40 172 0.0 0.0 0.00 0.00 0.00 100 1017.5
20260510025404 40 172 0.0 0.0 0.00 0.00 0.00 100 1017.4
20260510025120 40 172 0.0 0.0 0.00 0.00 0.00 100 1017.3
20260510025104 40 172 0.0 0.0 0.00 0.00 0.00 100 1017.4
20260510025050 40 172 0.0 0.0 0.00 0.00 0.00 100 1017.4
20260510025034 40 172 0.0 0.0 0.00 0.00 0.00 100 1017.4
20260510025018 40 172 0.0 0.0 0.00 0.00 0.00 100 1017.4
20260510025003 40 172 0.0 0.0 0.00 0.00 0.00 100 1017.4
20260510024209 40 172 0.0 0.0 0.00 0.00 0.00 100 1017.6
20260510024115 40 172 0.0 0.0 0.00 0.00 0.00 100 1017.4
20260510024058 40 172 0.0 0.0 0.00 0.00 0.00 100 1017.4
20260510024050 40 172 0.0 0.0 0.00 0.00 0.00 100 1017.5
20260510024035 40 172 0.0 0.0 0.00 0.00 0.00 100 1017.8
20260510023711 40 172 0.0 0.0 0.00 0.00 0.00 100 1017.5
20260510023608 40 172 0.0 0.0 0.00 0.00 0.00 100 1017.8
20260510023530 40 172 0.0 0.0 0.00 0.00 0.00 100 1017.8
20260510023509 40 172 0.0 0.0 0.00 0.00 0.00 100 1017.4
20260510023409 40 172 0.0 0.0 0.00 0.00 0.00 100 1017.5
20260510023343 40 172 0.0 0.0 0.00 0.00 0.00 100 1017.4
20260510023328 40 172 0.0 0.0 0.00 0.00 0.00 100 1017.4
20260510023031 40 172 0.0 0.0 0.00 0.00 0.00 100 1017.3
20260510023010 40 172 0.0 0.0 0.00 0.00 0.00 100 1017.4
20260510022910 40 172 0.0 0.0 0.00 0.00 0.00 100 1017.4
20260510022849 39 172 0.0 0.0 0.00 0.00 0.00 100 1017.4
20260510022844 39 172 0.0 0.0 0.00 0.00 0.00 100 1017.6
20260510022840 40 172 0.0 0.0 0.00 0.00 0.00 100 1017.7
20260510022832 39 172 0.0 0.0 0.00 0.00 0.00 100 1017.4
20260510022817 39 172 0.0 0.0 0.00 0.00 0.00 100 1017.7
20260510022801 39 172 0.0 0.0 0.00 0.00 0.00 100 1017.4
20260510022535 39 172 0.0 0.0 0.00 0.00 0.00 100 1017.4
20260510022518 39 172 0.0 0.0 0.00 0.00 0.00 100 1017.5
20260510022501 39 172 0.0 0.0 0.00 0.00 0.00 100 1017.5
20260510022444 39 172 0.0 0.0 0.00 0.00 0.00 100 1017.7
20260510022429 39 172 0.0 0.0 0.00 0.00 0.00 100 1017.6
20260510022200 39 172 0.0 0.0 0.00 0.00 0.00 100 1017.6
20260510022144 39 172 0.0 0.0 0.00 0.00 0.00 100 1017.6
20260510021909 40 172 0.0 0.0 0.00 0.00 0.00 100 1017.7
20260510021855 40 172 0.0 0.0 0.00 0.00 0.00 100 1017.7
20260510021629 40 172 0.0 0.0 0.00 0.00 0.00 100 1017.7
20260510021309 40 172 0.0 0.0 0.00 0.00 0.00 100 1017.6
20260510021210 40 172 0.0 0.0 0.00 0.00 0.00 100 1017.8
20260510021110 40 172 0.0 0.0 0.00 0.00 0.00 100 1017.6
20260510021054 40 172 0.0 0.0 0.00 0.00 0.00 100 1017.6
20260510021046 40 172 0.0 0.0 0.00 0.00 0.00 100 1017.8
20260510021030 40 172 0.0 0.0 0.00 0.00 0.00 100 1017.7
20260510020708 40 172 0.0 0.0 0.00 0.00 0.00 100 1017.7
20260510020609 40 172 0.0 0.0 0.00 0.00 0.00 100 1017.5
20260510020529 40 172 0.0 0.0 0.00 0.00 0.00 100 1017.5
20260510020517 40 172 0.0 0.0 0.00 0.00 0.00 100 1017.7
20260510020512 39 172 0.0 0.0 0.00 0.00 0.00 100 1017.7
20260510020501 39 172 0.0 0.0 0.00 0.00 0.00 100 1017.7
20260510020451 39 172 0.0 0.0 0.00 0.00 0.00 100 1017.5
20260510020435 39 172 0.0 0.0 0.00 0.00 0.00 100 1017.7
20260510020418 39 172 0.0 0.0 0.00 0.00 0.00 100 1017.7
20260510020402 39 172 0.0 0.0 0.00 0.00 0.00 100 1017.7
20260510020133 39 172 0.0 0.0 0.00 0.00 0.00 100 1017.6
20260510020118 39 172 0.0 0.0 0.00 0.00 0.00 100 1017.7
20260510015610 40 172 0.0 0.0 0.00 0.00 0.00 100 1017.9
20260510015602 40 172 0.0 0.0 0.00 0.00 0.00 100 1017.8
20260510015548 40 172 0.0 0.0 0.00 0.00 0.00 100 1017.8
20260510015323 40 172 0.0 0.0 0.00 0.00 0.00 100 1017.7
20260510015307 40 172 0.0 0.0 0.00 0.00 0.00 100 1017.9
20260510015251 40 172 0.0 0.0 0.00 0.00 0.00 100 1017.7
20260510015009 40 172 0.0 0.0 0.00 0.00 0.00 100 1017.7
20260510014910 40 172 0.0 0.0 0.00 0.00 0.00 100 1017.9
20260510014824 40 172 0.0 0.0 0.00 0.00 0.00 100 1017.8
20260510014819 40 172 0.0 0.0 0.00 0.00 0.00 100 1017.8
20260510014803 40 172 0.0 0.0 0.00 0.00 0.00 100 1017.8
20260510014747 40 172 0.0 0.0 0.00 0.00 0.00 100 1017.8
20260510014509 40 172 0.0 0.0 0.00 0.00 0.00 100 1017.7
20260510014408 40 172 0.0 0.0 0.00 0.00 0.00 100 1018.0
20260510014309 40 172 0.0 0.0 0.00 0.00 0.00 100 1017.8
20260510014209 40 172 0.0 0.0 0.00 0.00 0.00 100 1017.9
20260510014110 40 172 0.0 0.0 0.00 0.00 0.00 100 1017.6
20260510014029 40 172 0.0 0.0 0.00 0.00 0.00 100 1017.6
20260510014009 40 172 0.0 0.0 0.00 0.00 0.00 100 1017.8
20260510013908 40 172 0.0 0.0 0.00 0.00 0.00 100 1017.6
20260510013757 40 172 0.0 0.0 0.00 0.00 0.00 100 1017.8
20260510013738 40 172 0.0 0.0 0.00 0.00 0.00 100 1017.9
20260510013710 40 172 0.0 0.0 0.00 0.00 0.00 100 1017.8
20260510013434 40 172 0.0 0.0 0.00 0.00 0.00 100 1017.6
20260510013418 40 172 0.0 0.0 0.00 0.00 0.00 100 1017.7
20260510013127 40 172 0.0 0.0 0.00 0.00 0.00 100 1017.6
20260510013118 40 172 0.0 0.0 0.00 0.00 0.00 100 1018.0
20260510012757 40 172 0.0 0.0 0.00 0.00 0.00 100 1017.8
20260510012658 40 172 0.0 0.0 0.00 0.00 0.00 100 1017.8
20260510012529 40 172 0.0 0.0 0.00 0.00 0.00 100 1017.9
20260510012457 40 172 0.0 0.0 0.00 0.00 0.00 100 1017.9
20260510012357 40 172 0.0 0.0 0.00 0.00 0.00 100 1017.9
20260510012257 41 172 0.0 0.0 0.00 0.00 0.00 100 1018.0
20260510012158 41 172 0.0 0.0 0.00 0.00 0.00 100 1017.8
20260510012029 41 172 0.0 0.0 0.00 0.00 0.00 100 1017.7
20260510011956 41 172 0.0 0.0 0.00 0.00 0.00 100 1017.8
20260510011858 41 172 0.0 0.0 0.00 0.00 0.00 100 1017.8
20260510011757 41 172 0.0 0.0 0.00 0.00 0.00 100 1017.7
20260510011657 41 172 0.0 0.0 0.00 0.00 0.00 100 1017.8
20260510011626 41 172 0.0 0.0 0.00 0.00 0.00 100 1018.2
20260510011617 41 172 0.0 0.0 0.00 0.00 0.00 100 1017.7
20260510011259 41 172 0.0 0.0 0.00 0.00 0.00 100 1017.7
20260510011244 41 172 0.0 0.0 0.00 0.00 0.00 100 1017.9
20260510011212 41 172 0.0 0.0 0.00 0.00 0.00 100 1018.0
20260510010859 41 172 0.0 0.0 0.00 0.00 0.00 100 1017.6
20260510010757 41 172 0.0 0.0 0.00 0.00 0.00 100 1018.0
20260510010656 41 172 0.0 0.0 0.00 0.00 0.00 100 1018.0
20260510010529 41 172 0.0 0.0 0.00 0.00 0.00 100 1018.0
20260510010445 41 172 0.0 0.0 0.00 0.00 0.00 100 1017.8
20260510010345 41 172 0.0 0.0 0.00 0.00 0.00 100 1017.8
20260510010244 41 172 0.0 0.0 0.00 0.00 0.00 100 1018.0
20260510010145 41 172 0.0 0.0 0.00 0.00 0.00 100 1018.0
20260510010029 41 172 0.0 0.0 0.00 0.00 0.00 100 1018.1
20260510010013 41 172 0.0 0.0 0.00 0.00 0.00 100 1017.9
20260510005953 41 172 0.0 0.0 0.00 0.00 0.00 100 1017.9
20260510005633 42 172 0.0 0.0 0.00 0.00 0.00 100 1017.9
20260510005532 42 172 0.0 0.0 0.00 0.00 0.00 100 1017.8
20260510005433 42 172 0.0 0.0 0.00 0.00 0.00 100 1018.1
20260510005333 42 172 0.0 0.0 0.00 0.00 0.00 100 1017.9
20260510005234 42 172 0.0 0.0 0.00 0.00 0.00 100 1017.8
20260510005133 42 172 0.0 0.0 0.00 0.00 0.00 100 1017.7
20260510005030 41 172 0.0 0.0 0.00 0.00 0.00 100 1018.0
20260510004215 41 172 0.0 0.0 0.00 0.00 0.00 100 1018.1
20260510004116 41 172 0.0 0.0 0.00 0.00 0.00 100 1018.0
20260510004103 41 172 0.0 0.0 0.00 0.00 0.00 100 1018.0
20260510004051 41 172 0.0 0.0 0.00 0.00 0.00 100 1017.8
20260510004036 41 172 0.0 0.0 0.00 0.00 0.00 100 1017.7
20260510003715 41 172 0.0 0.0 0.00 0.00 0.00 100 1018.1
20260510003658 41 172 0.0 0.0 0.00 0.00 0.00 100 1018.1
20260510003647 42 172 0.0 0.0 0.00 0.00 0.00 100 1018.1
20260510003635 42 172 0.0 0.0 0.00 0.00 0.00 100 1017.9
20260510003315 42 172 0.0 0.0 0.00 0.00 0.00 100 1018.1
20260510003214 42 172 0.0 0.0 0.00 0.00 0.00 100 1018.1
20260510003115 42 172 0.0 0.0 0.00 0.00 0.00 100 1018.2
20260510003100 42 172 0.0 0.0 0.00 0.00 0.00 100 1018.2
20260510003015 42 172 0.0 0.0 0.00 0.00 0.00 100 1018.1
20260510002955 42 172 0.0 0.0 0.00 0.00 0.00 100 1018.0
20260510002939 42 172 0.0 0.0 0.00 0.00 0.00 100 1018.0
20260510002924 43 172 0.0 0.0 0.00 0.00 0.00 100 1018.0
20260510002652 43 172 0.0 0.0 0.00 0.00 0.00 100 1018.1
20260510002641 43 172 0.0 0.0 0.00 0.00 0.00 100 1018.0
20260510002624 43 172 0.0 0.0 0.00 0.00 0.00 100 1018.1
20260510002607 43 172 0.0 0.0 0.00 0.00 0.00 100 1018.2
20260510002332 43 172 0.0 0.0 0.00 0.00 0.00 100 1018.2
20260510002319 43 172 0.0 0.0 0.00 0.00 0.00 100 1018.2
20260510002255 43 171 0.0 0.0 0.00 0.00 0.00 100 1018.2
20260510002239 43 171 0.0 0.0 0.00 0.00 0.00 100 1018.1
20260510002003 43 172 0.0 0.0 0.00 0.00 0.00 100 1018.2
20260510001725 43 172 0.0 0.0 0.00 0.00 0.00 100 1018.4
20260510001714 43 172 0.0 0.0 0.00 0.00 0.00 100 1018.2
20260510001658 43 172 0.0 0.0 0.00 0.00 0.00 100 1018.3
20260510001125 43 172 0.0 0.0 0.00 0.00 0.00 100 1018.2
20260510001111 43 172 0.0 0.0 0.00 0.00 0.00 100 1018.2
20260510001015 43 172 0.0 0.0 0.00 0.00 0.00 100 1018.1
20260510000916 43 172 0.0 0.0 0.00 0.00 0.00 100 1018.2
20260510000848 43 172 0.0 0.0 0.00 0.00 0.00 100 1018.1
20260510000832 43 172 0.0 0.0 0.00 0.00 0.00 100 1018.1
20260510000816 43 172 0.0 0.0 0.00 0.00 0.00 100 1018.2
20260510000804 43 172 0.0 0.0 0.00 0.00 0.00 100 1018.2
20260510000754 43 172 0.0 0.0 0.00 0.00 0.00 100 1018.1
20260510000215 43 172 0.0 0.0 0.00 0.00 0.00 100 1018.3
20260510000116 43 172 0.0 0.0 0.00 0.00 0.00 100 1018.2
20260510000052 43 172 0.0 0.0 0.00 0.00 0.00 100 1018.3
20260510000036 42 172 0.0 0.0 0.00 0.00 0.00 100 1018.3
20260509235715 42 172 0.0 0.0 0.00 0.00 0.00 100 1018.3
20260509235616 42 172 0.0 0.0 0.00 0.00 0.00 100 1018.5
20260509235559 42 172 0.0 0.0 0.00 0.00 0.00 100 1018.5
20260509235516 42 172 0.0 0.0 0.00 0.00 0.00 100 1018.4
20260509235416 42 172 0.0 0.0 0.00 0.00 0.00 100 1018.1
20260509235316 42 172 0.0 0.0 0.00 0.00 0.00 100 1018.3
20260509235215 42 172 0.0 0.0 0.00 0.00 0.00 100 1018.2
20260509235115 42 172 0.0 0.0 0.00 0.00 0.00 100 1018.4
20260509235100 42 172 0.0 0.0 0.00 0.00 0.00 100 1018.4
20260509235017 42 172 0.0 0.0 0.00 0.00 0.00 100 1018.3
20260509234915 42 172 0.0 0.0 0.00 0.00 0.00 100 1018.3
20260509234816 42 172 0.0 0.0 0.00 0.00 0.00 100 1018.3
20260509234715 42 172 0.0 0.0 0.00 0.00 0.00 100 1018.3
20260509234616 42 172 0.0 0.0 0.00 0.00 0.00 100 1018.3
20260509234559 42 172 0.0 0.0 0.00 0.00 0.00 100 1018.3
20260509234515 42 172 0.0 0.0 0.00 0.00 0.00 100 1018.5
20260509234453 42 172 0.0 0.0 0.00 0.00 0.00 100 1018.3
20260509234437 42 172 0.0 0.0 0.00 0.00 0.00 100 1018.3
20260509234421 42 172 0.0 0.0 0.00 0.00 0.00 100 1018.5
20260509234406 42 172 0.0 0.0 0.00 0.00 0.00 100 1018.3
20260509234351 42 172 0.0 0.0 0.00 0.00 0.00 100 1018.3
20260509233837 43 172 0.0 0.0 0.00 0.00 0.00 100 1018.4
20260509233830 42 172 0.0 0.0 0.00 0.00 0.00 100 1018.3
20260509233815 42 172 0.0 0.0 0.00 0.00 0.00 100 1018.3
20260509233759 42 172 0.0 0.0 0.00 0.00 0.00 100 1018.3
20260509233748 42 172 0.0 0.0 0.00 0.00 0.00 100 1018.3
20260509233737 42 172 0.0 0.0 0.00 0.00 0.00 100 1018.2
20260509233721 42 172 0.0 0.0 0.00 0.00 0.00 100 1018.4
20260509233445 42 172 0.0 0.0 0.00 0.00 0.00 100 1018.2
20260509233428 43 172 0.0 0.0 0.00 0.00 0.00 100 1018.4
20260509233415 43 172 0.0 0.0 0.00 0.00 0.00 100 1018.4
20260509233143 43 172 0.0 0.0 0.00 0.00 0.00 100 1018.4
20260509233128 43 172 0.0 0.0 0.00 0.00 0.00 100 1018.3
20260509232636 43 172 0.0 0.0 0.00 0.00 0.00 100 1018.4
20260509232626 43 172 0.0 0.0 0.00 0.00 0.00 100 1018.5
20260509232610 43 172 0.0 0.0 0.00 0.00 0.00 100 1018.3
20260509232553 43 172 0.0 0.0 0.00 0.00 0.00 100 1018.4
20260509232538 43 172 0.0 0.0 0.00 0.00 0.00 100 1018.5
20260509232016 43 172 0.0 0.0 0.00 0.00 0.00 100 1018.4
20260509231915 43 172 0.0 0.0 0.00 0.00 0.00 100 1018.3
20260509231815 43 172 0.0 0.0 0.00 0.00 0.00 100 1018.5
20260509231716 43 172 0.0 0.0 0.00 0.00 0.00 100 1018.3
20260509231657 43 172 0.0 0.0 0.00 0.00 0.00 100 1018.5
20260509231645 43 172 0.0 0.0 0.00 0.00 0.00 100 1018.5
20260509231635 43 172 0.0 0.0 0.00 0.00 0.00 100 1018.3
20260509231351 43 172 0.0 0.0 0.00 0.00 0.00 100 1018.2
20260509231336 43 172 0.0 0.0 0.00 0.00 0.00 100 1018.4
20260509231100 43 172 0.0 0.0 0.00 0.00 0.00 100 1018.5
20260509231015 43 172 0.0 0.0 0.00 0.00 0.00 100 1018.7
20260509230950 43 172 0.0 0.0 0.00 0.00 0.00 100 1018.4
20260509230934 43 172 0.0 0.0 0.00 0.00 0.00 100 1018.5
20260509230615 43 172 0.0 0.0 0.00 0.00 0.00 100 1018.7
20260509230537 43 172 0.0 0.0 0.00 0.00 0.00 100 1018.7
20260509230521 43 172 0.0 0.0 0.00 0.00 0.00 100 1018.8
20260509230506 43 172 0.0 0.0 0.00 0.00 0.00 100 1018.7
20260509230230 43 172 0.0 0.0 0.00 0.00 0.00 100 1018.4
20260509230219 43 172 0.0 0.0 0.00 0.00 0.00 100 1018.4
20260509230208 43 172 0.0 0.0 0.00 0.00 0.00 100 1018.7
20260509230154 43 172 0.0 0.0 0.00 0.00 0.00 100 1018.7
20260509225917 43 172 0.0 0.0 0.00 0.00 0.00 100 1018.5
20260509225646 43 172 0.0 0.0 0.00 0.00 0.00 100 1018.8
20260509225636 43 172 0.0 0.0 0.00 0.00 0.00 100 1018.7
20260509225353 44 171 0.0 0.0 0.00 0.00 0.00 100 1018.7
20260509225343 43 172 0.0 0.0 0.00 0.00 0.00 100 1018.8
20260509225327 43 172 0.0 0.0 0.00 0.00 0.00 100 1018.5
20260509225312 44 172 0.0 0.0 0.00 0.00 0.00 100 1018.8
20260509225300 44 172 0.0 0.0 0.00 0.00 0.00 100 1018.8
20260509225247 44 172 0.0 0.0 0.00 0.00 0.00 100 1018.9
20260509225231 44 172 0.0 0.0 0.00 0.00 0.00 100 1018.7
20260509225215 44 172 0.0 0.0 0.00 0.00 0.00 100 1018.7
20260509225200 44 172 0.0 0.0 0.00 0.00 0.00 100 1018.8
20260509224928 44 172 0.0 0.0 0.00 0.00 0.00 100 1018.7
20260509224918 44 172 0.0 0.0 0.00 0.00 0.00 100 1018.9
20260509224902 44 172 0.0 0.0 0.00 0.00 0.00 100 1018.7
20260509224845 44 171 0.0 0.0 0.00 0.00 0.00 100 1018.9
20260509224829 44 171 0.0 0.0 0.00 0.00 0.00 100 1019.0
20260509223815 44 171 0.0 0.0 0.00 0.00 0.00 100 1018.5
20260509223716 44 171 0.0 0.0 0.00 0.00 0.00 100 1018.7
20260509223626 44 171 0.0 0.0 0.00 0.00 0.00 100 1018.8
20260509223614 44 171 0.0 0.0 0.00 0.00 0.00 100 1018.8
20260509223554 44 173 0.0 0.0 0.00 0.00 0.00 99 1019.0
20260509223545 44 172 0.0 0.0 0.00 0.00 0.00 100 1018.7
20260509223530 44 172 0.0 0.0 0.00 0.00 0.00 100 1018.9
20260509223514 43 172 0.0 0.0 0.00 0.00 0.00 100 1018.5
20260509223253 44 173 0.0 0.0 0.00 0.00 0.00 99 1018.9
20260509223243 43 172 0.0 0.0 0.00 0.00 0.00 100 1018.8
20260509223227 43 173 0.0 0.0 0.00 0.00 0.00 100 1018.9
20260509223216 43 173 0.0 0.0 0.00 0.00 0.00 100 1018.9
20260509223203 43 173 0.0 0.0 0.00 0.00 0.00 100 1018.8
20260509223148 43 173 0.0 0.0 0.00 0.00 0.00 100 1018.5
20260509223133 43 173 0.0 0.0 0.00 0.00 0.00 100 1018.5
20260509222856 44 173 0.0 0.0 0.00 0.00 0.00 99 1019.0
20260509222630 44 173 0.0 0.0 0.00 0.00 0.00 99 1018.9
20260509222613 44 173 0.0 0.0 0.00 0.00 0.00 99 1018.9
20260509222557 44 173 0.0 0.0 0.00 0.00 0.00 99 1018.8
20260509222542 44 173 0.0 0.0 0.00 0.00 0.00 99 1018.9
20260509222525 44 173 0.0 0.0 0.00 0.00 0.00 99 1018.9
20260509222036 44 173 0.0 0.0 0.00 0.00 0.00 99 1018.8
20260509222018 44 173 0.0 0.0 0.00 0.00 0.00 99 1018.7
20260509222002 44 173 0.0 0.0 0.00 0.00 0.00 99 1018.8
20260509221730 44 173 0.0 0.0 0.00 0.00 0.00 99 1019.0
20260509221452 44 173 0.0 0.0 0.00 0.00 0.00 99 1018.8
20260509221435 44 173 0.0 0.0 0.00 0.00 0.00 99 1019.0
20260509221128 44 173 0.0 0.0 0.00 0.00 0.00 99 1019.1
20260509221117 44 173 0.0 0.0 0.00 0.00 0.00 99 1019.1
20260509221051 44 173 0.0 0.0 0.00 0.00 0.00 99 1018.9
20260509221035 44 173 0.0 0.0 0.00 0.00 0.00 99 1018.9
20260509220715 44 173 0.0 0.0 0.00 0.00 0.00 99 1019.0
20260509220617 45 173 0.0 0.0 0.00 0.00 0.00 99 1018.9
20260509220600 45 173 0.0 0.0 0.00 0.00 0.00 99 1018.9
20260509220515 45 173 0.0 0.0 0.00 0.00 0.00 99 1018.9
20260509220415 45 173 0.0 0.0 0.00 0.00 0.00 99 1019.2
20260509220315 45 173 0.0 0.0 0.00 0.00 0.00 99 1019.0
20260509220215 45 173 0.0 0.0 0.00 0.00 0.00 99 1018.9
20260509220123 45 173 0.0 0.0 0.00 0.00 0.00 99 1019.0
20260509220112 45 173 0.0 0.0 0.00 0.00 0.00 99 1019.0
20260509220015 45 173 0.0 0.0 0.00 0.00 0.00 99 1018.8
20260509215915 45 173 0.0 0.0 0.00 0.00 0.00 99 1019.1
20260509215816 44 173 0.0 0.0 0.00 0.00 0.00 99 1019.0
20260509215714 44 173 0.0 0.0 0.00 0.00 0.00 99 1018.9
20260509215615 44 173 0.0 0.0 0.00 0.00 0.00 99 1019.1
20260509215559 44 173 0.0 0.0 0.00 0.00 0.00 99 1019.1
20260509215514 44 173 0.0 0.0 0.00 0.00 0.00 99 1019.1
20260509215415 44 173 0.0 0.0 0.00 0.00 0.00 99 1019.2
20260509215315 44 173 0.0 0.0 0.00 0.00 0.00 99 1019.1
20260509215215 45 173 0.0 0.0 0.00 0.00 0.00 99 1019.0
20260509215115 45 173 0.0 0.0 0.00 0.00 0.00 99 1019.1
20260509215100 45 173 0.0 0.0 0.00 0.00 0.00 99 1019.1
20260509215016 45 173 0.0 0.0 0.00 0.00 0.00 99 1019.1
20260509214915 45 173 0.0 0.0 0.00 0.00 0.00 99 1019.1
20260509214816 45 173 0.0 0.0 0.00 0.00 0.00 99 1019.0
20260509214716 45 173 0.0 0.0 0.00 0.00 0.00 99 1019.1
20260509214615 45 173 0.0 0.0 0.00 0.00 0.00 99 1019.3
20260509214559 45 173 0.0 0.0 0.00 0.00 0.00 99 1019.3
20260509214515 45 172 0.0 0.0 0.00 0.00 0.00 99 1019.3
20260509214453 45 173 0.0 0.0 0.00 0.00 0.00 98 1019.1
20260509214436 45 173 0.0 0.0 0.00 0.00 0.00 98 1018.9
20260509214116 45 172 0.0 0.0 0.00 0.00 0.00 98 1019.1
20260509214100 45 172 0.0 0.0 0.00 0.00 0.00 98 1019.1
20260509214015 45 172 0.0 0.0 0.00 0.00 0.00 98 1019.0
20260509213915 45 172 0.0 0.0 0.00 0.00 0.00 98 1018.9
20260509213815 45 172 0.0 0.0 0.00 0.00 0.00 98 1019.1
20260509213715 45 172 0.0 0.0 0.00 0.00 0.00 98 1019.0
20260509213615 45 172 0.0 0.0 0.00 0.00 0.00 98 1019.1
20260509213601 45 172 0.0 0.0 0.00 0.00 0.00 98 1019.1
20260509213551 45 172 0.0 0.0 0.00 0.00 0.00 98 1019.0
20260509213534 45 172 0.0 0.0 0.00 0.00 0.00 98 1018.9
20260509213215 45 172 0.0 0.0 0.00 0.00 0.00 97 1019.0
20260509213116 45 173 0.0 0.0 0.00 0.00 0.00 97 1019.1
20260509213059 45 173 0.0 0.0 0.00 0.00 0.00 97 1019.1
20260509213015 45 173 0.0 0.0 0.00 0.00 0.00 97 1019.1
20260509212915 45 173 0.0 0.0 0.00 0.00 0.00 97 1019.0
20260509212816 46 173 0.0 0.0 0.00 0.00 0.00 97 1019.2
20260509212758 46 173 0.0 0.0 0.00 0.00 0.00 97 1019.0
20260509212742 46 173 0.0 0.0 0.00 0.00 0.00 97 1018.9
20260509212730 46 173 0.0 0.0 0.00 0.00 0.00 97 1018.9
20260509212416 46 173 0.0 0.0 0.00 0.00 0.00 97 1019.0
20260509212315 46 173 0.0 0.0 0.00 0.00 0.00 97 1019.1
20260509212215 46 173 0.0 0.0 0.00 0.00 0.00 97 1018.8
20260509212115 46 173 0.0 0.0 0.00 0.00 0.00 96 1019.0
20260509212052 46 173 0.0 0.0 0.00 0.00 0.00 96 1019.0
20260509212007 46 173 0.0 0.0 0.00 0.00 0.00 96 1019.1
20260509211939 46 173 0.0 0.0 0.00 0.00 0.00 96 1019.0
20260509211931 46 173 0.0 0.0 0.00 0.00 0.00 96 1019.1
20260509211913 46 173 0.0 0.0 0.00 0.00 0.00 96 1019.2
20260509211857 46 173 0.0 0.0 0.00 0.00 0.00 96 1019.1
20260509211830 46 173 0.0 0.0 0.00 0.00 0.00 96 1019.1
20260509211820 46 173 0.0 0.0 0.00 0.00 0.00 96 1019.1
20260509211323 46 173 0.0 0.0 0.00 0.00 0.00 96 1019.1
20260509211307 46 173 0.0 0.0 0.00 0.00 0.00 96 1019.0
20260509211005 46 172 0.0 0.0 0.00 0.00 0.00 96 1019.1
20260509210905 46 172 0.0 0.0 0.00 0.00 0.00 96 1018.9
20260509210840 46 172 0.0 0.0 0.00 0.00 0.00 95 1019.3
20260509210831 46 172 0.0 0.0 0.00 0.00 0.00 96 1018.9
20260509210815 46 172 0.0 0.0 0.00 0.00 0.00 96 1019.1
20260509210746 46 172 0.0 0.0 0.00 0.00 0.00 96 1019.1
20260509210518 46 172 0.0 0.0 0.00 0.00 0.00 95 1019.2
20260509210501 46 172 0.0 0.0 0.00 0.00 0.00 95 1019.2
20260509210446 46 172 0.0 0.0 0.00 0.00 0.00 95 1019.2
20260509210429 46 172 0.0 0.0 0.00 0.00 0.00 95 1019.3
20260509210200 46 172 0.0 0.0 0.00 0.00 0.00 95 1019.1
20260509205925 47 172 0.0 0.0 0.00 0.00 0.00 94 1018.9
20260509205605 47 173 0.0 0.0 0.00 0.00 0.00 94 1019.1
20260509205550 47 172 0.0 0.0 0.00 0.00 0.00 94 1019.1
20260509205504 47 172 0.0 0.0 0.00 0.00 0.00 94 1019.1
20260509205443 47 172 0.0 0.0 0.00 0.00 0.00 94 1019.1
20260509205426 47 172 0.0 0.0 0.00 0.00 0.00 94 1019.1
20260509205137 47 172 0.0 0.0 0.00 0.00 0.00 94 1019.2
20260509205125 47 172 0.0 0.0 0.00 0.00 0.00 94 1019.1
20260509204805 48 172 0.0 0.0 0.00 0.00 0.00 94 1019.2
20260509204706 48 172 0.0 0.0 0.00 0.00 0.00 94 1019.4
20260509204614 48 172 0.0 0.0 0.00 0.00 0.00 94 1019.3
20260509204555 48 172 0.0 0.0 0.00 0.00 0.00 94 1019.6
20260509204545 48 172 0.0 0.0 0.00 0.00 0.00 94 1019.3
20260509204527 48 172 0.0 0.0 0.00 0.00 0.00 94 1019.3
20260509204511 48 172 0.0 0.0 0.00 0.00 0.00 94 1019.2
20260509204455 48 172 0.0 0.0 0.00 0.00 0.00 94 1019.3
20260509204440 48 172 0.0 0.0 0.00 0.00 0.00 94 1019.3
20260509203941 48 172 0.0 0.0 0.00 0.00 0.00 94 1019.1
20260509203925 48 172 0.0 0.0 0.00 0.00 0.00 94 1019.0
20260509203549 48 172 0.0 0.0 0.00 0.00 0.00 94 1019.4
20260509203506 48 172 0.0 0.0 0.00 0.00 0.00 93 1019.2
20260509203411 48 172 0.0 0.0 0.00 0.00 0.00 93 1019.1
20260509203356 48 172 0.0 0.0 0.00 0.00 0.00 93 1019.4
20260509203340 48 172 0.0 0.0 0.00 0.00 0.00 93 1019.2
20260509203109 48 172 0.0 0.0 0.00 0.00 0.00 93 1019.3
20260509203005 48 172 0.0 0.0 0.00 0.00 0.00 93 1019.2
20260509202907 48 172 0.0 0.0 0.00 0.00 0.00 93 1019.2
20260509202806 48 172 0.0 0.0 0.00 0.00 0.00 93 1019.2
20260509202706 48 172 0.0 0.0 0.00 0.00 0.00 93 1019.2
20260509202549 48 172 0.0 0.0 0.00 0.00 0.00 93 1019.5
20260509202505 48 172 0.0 0.0 0.00 0.00 0.00 92 1019.2
20260509202440 49 172 0.0 0.0 0.00 0.00 0.00 90 1019.1
20260509202432 48 172 0.0 0.0 0.00 0.00 0.00 92 1019.6
20260509202417 48 172 0.0 0.0 0.00 0.00 0.00 92 1019.3
20260509202401 48 172 0.0 0.0 0.00 0.00 0.00 92 1019.0
20260509202332 48 172 0.0 0.0 0.00 0.00 0.00 92 1019.1
20260509202320 48 172 0.0 0.0 0.00 0.00 0.00 91 1019.0
20260509202306 48 172 0.0 0.0 0.00 0.00 0.00 91 1019.2
20260509202029 49 172 0.0 0.0 0.00 0.00 0.00 91 1019.3
20260509201506 49 172 0.0 0.0 0.00 0.00 0.00 90 1019.2
20260509201406 49 172 0.0 0.0 0.00 0.00 0.00 90 1019.2
20260509201306 49 172 0.0 0.0 0.00 0.00 0.00 90 1019.1
20260509201206 49 172 0.0 0.0 0.00 0.00 0.00 90 1019.1
20260509201054 49 172 0.0 0.0 0.00 0.00 0.00 90 1019.4
20260509201042 49 172 0.0 0.0 0.00 0.00 0.00 90 1019.2
20260509201026 49 172 0.0 0.0 0.00 0.00 0.00 90 1019.2
20260509200748 49 172 0.0 0.0 0.00 0.00 0.00 90 1019.2
20260509200721 49 172 0.0 0.0 0.00 0.00 0.00 90 1019.2
20260509200406 50 172 0.0 0.0 0.00 0.00 0.00 89 1019.4
20260509200305 50 172 0.0 0.0 0.00 0.00 0.00 89 1019.3
20260509200205 50 172 0.0 0.0 0.00 0.00 0.00 89 1018.9
20260509200006 50 172 0.0 0.0 0.00 0.00 0.00 89 1019.2
20260509195905 50 172 0.0 0.0 0.00 0.00 0.00 89 1019.2
20260509195805 50 172 0.0 0.0 0.00 0.00 0.00 89 1019.2
20260509195736 51 171 0.0 0.0 0.00 0.00 0.00 87 1019.2
20260509195726 50 172 0.0 0.0 0.00 0.00 0.00 88 1019.2
20260509195659 50 172 0.0 0.0 0.00 0.00 0.00 88 1019.2
20260509195647 50 172 0.0 0.0 0.00 0.00 0.00 88 1019.4
20260509195422 50 172 0.0 0.0 0.00 0.00 0.00 88 1019.1
20260509195407 50 171 0.0 0.0 0.00 0.00 0.00 88 1019.2
20260509195351 50 171 0.0 0.0 0.00 0.00 0.00 88 1019.2
20260509195323 50 171 0.0 0.0 0.00 0.00 0.00 88 1019.3
20260509195311 51 171 0.0 0.0 0.00 0.00 0.00 88 1019.2
20260509195255 51 171 0.0 0.0 0.00 0.00 0.00 88 1019.3
20260509195240 51 171 0.0 0.0 0.00 0.00 0.00 87 1019.2
20260509195224 51 171 0.0 0.0 0.00 0.00 0.00 87 1019.4
20260509195207 51 171 0.0 0.0 0.00 0.00 0.00 87 1019.2
20260509194720 51 169 0.0 0.0 0.00 0.00 0.00 87 1019.2
20260509194445 51 167 0.0 0.0 0.00 0.00 0.00 87 1019.4
20260509194417 51 167 0.0 0.0 0.00 0.00 0.00 87 1019.4
20260509194145 51 166 0.0 1.0 0.00 0.00 0.00 86 1019.1
20260509193635 51 162 0.0 1.0 0.00 0.00 0.00 86 1019.2
20260509193625 51 161 0.0 1.0 0.00 0.00 0.00 86 1019.3
20260509193340 51 159 0.0 1.0 0.00 0.00 0.00 86 1019.2
20260509193325 51 157 0.0 1.0 0.00 0.00 0.00 86 1019.3
20260509193049 51 160 0.0 0.0 0.00 0.00 0.00 86 1019.3
20260509193007 51 157 0.0 0.0 0.00 0.00 0.00 85 1019.1
20260509192905 51 157 0.0 0.0 0.00 0.00 0.00 85 1019.2
20260509192805 51 155 0.0 0.0 0.00 0.00 0.00 85 1019.3
20260509192706 51 163 0.0 1.0 0.00 0.00 0.00 85 1019.3
20260509192605 52 162 0.0 1.0 0.00 0.00 0.00 85 1019.3
20260509192551 52 160 0.0 1.0 0.00 0.00 0.00 85 1019.3
20260509192540 52 155 0.0 1.0 0.00 0.00 0.00 85 1019.0
20260509192526 52 149 0.0 1.0 0.00 0.00 0.00 84 1019.2
20260509192204 52 149 0.0 1.0 0.00 0.00 0.00 84 1019.3
20260509192049 52 147 0.0 1.0 0.00 0.00 0.00 84 1019.1
20260509192006 52 159 0.0 2.0 0.00 0.00 0.00 84 1019.2
20260509191905 52 158 0.0 2.0 0.00 0.00 0.00 84 1019.4
20260509191843 52 153 0.0 2.0 0.00 0.00 0.00 83 1019.3
20260509191836 52 140 0.0 2.0 0.00 0.00 0.00 84 1019.1
20260509191822 52 155 0.0 2.0 0.00 0.00 0.00 83 1019.4
20260509191806 52 155 0.0 2.0 0.00 0.00 0.00 83 1019.3
20260509191505 52 151 0.0 2.0 0.00 0.00 0.00 83 1019.3
20260509191447 52 157 0.0 2.0 0.00 0.00 0.00 83 1019.3
20260509191430 52 138 0.0 2.0 0.00 0.00 0.00 83 1019.3
20260509191152 52 72 1.0 2.0 0.00 0.00 0.00 83 1019.2
20260509191139 52 78 1.0 2.0 0.00 0.00 0.00 83 1019.2
20260509191126 52 137 0.0 2.0 0.00 0.00 0.00 83 1019.4
20260509190805 52 147 0.0 2.0 0.00 0.00 0.00 82 1019.3
20260509190705 52 124 0.0 2.0 0.00 0.00 0.00 82 1019.4
20260509190606 52 90 1.0 2.0 0.00 0.00 0.00 82 1019.2
20260509190554 52 84 1.0 2.0 0.00 0.00 0.00 82 1019.2
20260509190543 52 108 1.0 3.0 0.00 0.00 0.00 83 1019.3
20260509190528 52 106 1.0 3.0 0.00 0.00 0.00 83 1019.4
20260509190205 52 122 0.0 4.0 0.00 0.00 0.00 83 1019.4
20260509190104 52 119 0.0 4.0 0.00 0.00 0.00 82 1019.4
20260509190006 52 102 0.0 4.0 0.00 0.00 0.00 82 1019.3
20260509185906 52 76 0.0 4.0 0.00 0.00 0.00 82 1019.2
20260509185806 52 59 1.0 4.0 0.00 0.00 0.00 82 1019.0
20260509185704 52 83 0.0 4.0 0.00 0.00 0.00 82 1019.4
20260509185606 52 68 1.0 4.0 0.00 0.00 0.00 83 1019.1
20260509185550 52 59 1.0 4.0 0.00 0.00 0.00 83 1019.1
20260509185541 53 54 2.0 3.0 0.00 0.00 0.00 83 1019.1
20260509185533 52 108 0.0 4.0 0.00 0.00 0.00 83 1019.2
20260509185517 52 68 3.0 4.0 0.00 0.00 0.00 82 1019.3
20260509185501 52 63 1.0 4.0 0.00 0.00 0.00 83 1019.3
20260509185445 52 117 0.0 3.0 0.00 0.00 0.00 83 1019.1
20260509185429 52 123 0.0 3.0 0.00 0.00 0.00 83 1019.2
20260509185417 52 130 0.0 3.0 0.00 0.00 0.00 83 1019.2
20260509185404 52 96 0.0 3.0 0.00 0.00 0.00 83 1019.4
20260509185348 53 85 0.0 3.0 0.00 0.00 0.00 83 1019.4
20260509185332 53 86 0.0 3.0 0.00 0.00 0.00 83 1019.4
20260509185057 53 86 1.0 3.0 0.00 0.00 0.00 83 1019.1
20260509184305 53 61 0.0 3.0 0.00 0.00 0.00 83 1019.3
20260509184209 53 69 0.0 3.0 0.00 0.00 0.00 83 1019.1
20260509184142 53 108 1.0 3.0 0.00 0.00 0.00 83 1019.1
20260509184129 53 105 0.0 3.0 0.00 0.00 0.00 83 1019.2
20260509183805 53 130 0.0 3.0 0.00 0.00 0.00 83 1019.1
20260509183705 53 128 0.0 3.0 0.00 0.00 0.00 83 1019.4
20260509183549 53 104 0.0 3.0 0.00 0.00 0.00 83 1019.2
20260509183507 53 87 0.0 3.0 0.00 0.00 0.00 83 1019.3
20260509183405 53 129 0.0 3.0 0.00 0.00 0.00 83 1019.2
20260509183306 53 97 0.0 3.0 0.00 0.00 0.00 83 1019.1
20260509183205 53 114 0.0 3.0 0.00 0.00 0.00 83 1019.1
20260509183105 53 100 1.0 3.0 0.00 0.00 0.00 83 1019.2
20260509183050 53 125 0.0 3.0 0.00 0.00 0.00 83 1019.2
20260509183006 53 134 0.0 3.0 0.00 0.00 0.00 83 1019.1
20260509182906 53 124 0.0 3.0 0.00 0.00 0.00 82 1019.2
20260509182806 53 75 0.0 3.0 0.00 0.00 0.00 82 1019.1
20260509182705 53 127 1.0 2.0 0.00 0.00 0.00 82 1019.0
20260509182605 53 121 0.0 2.0 0.00 0.00 0.00 82 1019.1
20260509182550 53 115 0.0 2.0 0.00 0.00 0.00 82 1019.1
20260509182505 53 49 2.0 2.0 0.00 0.00 0.00 82 1019.1
20260509182405 53 146 0.0 1.0 0.00 0.00 0.00 82 1019.2
20260509182307 53 145 0.0 1.0 0.00 0.00 0.00 82 1019.1
20260509182205 53 134 0.0 2.0 0.00 0.00 0.00 82 1018.9
20260509182053 53 147 0.0 2.0 0.00 0.00 0.00 82 1019.1
20260509182041 53 131 0.0 2.0 0.00 0.00 0.00 82 1018.8
20260509182025 53 133 0.0 2.0 0.00 0.00 0.00 82 1019.3
20260509181705 53 151 0.0 2.0 0.00 0.00 0.00 82 1019.1
20260509181605 53 134 0.0 2.0 0.00 0.00 0.00 82 1019.1
20260509181549 53 133 0.0 2.0 0.00 0.00 0.00 82 1019.1
20260509181506 53 151 0.0 2.0 0.00 0.00 0.00 82 1019.1
20260509181405 53 132 0.0 2.0 0.00 0.00 0.00 81 1018.9
20260509181341 53 120 0.0 2.0 0.00 0.00 0.00 81 1019.1
20260509181325 53 128 0.0 1.0 0.00 0.00 0.00 81 1019.1
20260509181050 53 129 0.0 1.0 0.00 0.00 0.00 81 1018.9
20260509181006 53 141 0.0 1.0 0.00 0.00 0.00 81 1019.1
20260509180904 53 129 0.0 1.0 0.00 0.00 0.00 81 1019.2
20260509180842 53 120 0.0 1.0 0.00 0.00 0.00 81 1019.0
20260509180826 53 149 0.0 1.0 0.00 0.00 0.00 81 1019.1
20260509180549 53 144 0.0 1.0 0.00 0.00 0.00 81 1019.0
20260509180541 53 90 0.0 3.0 0.00 0.00 0.00 80 1019.0
20260509180533 53 112 0.0 1.0 0.00 0.00 0.00 81 1019.0
20260509180517 53 136 0.0 1.0 0.00 0.00 0.00 81 1019.0
20260509180502 53 163 0.0 1.0 0.00 0.00 0.00 81 1018.8
20260509180212 53 146 0.0 1.0 0.00 0.00 0.00 80 1019.1
20260509180159 53 146 0.0 1.0 0.00 0.00 0.00 80 1019.1
20260509180143 53 144 0.0 1.0 0.00 0.00 0.00 80 1019.2
20260509180127 53 157 0.0 3.0 0.00 0.00 0.00 80 1019.1
20260509175851 53 67 1.0 3.0 0.00 0.00 0.00 80 1019.0
20260509175625 53 161 0.0 3.0 0.00 0.00 0.00 80 1019.1
20260509175345 53 158 0.0 3.0 0.00 0.00 0.00 80 1019.1
20260509175328 53 136 0.0 3.0 0.00 0.00 0.00 80 1019.1
20260509175049 54 142 0.0 3.0 0.00 0.00 0.00 80 1019.1
20260509175005 54 121 0.0 3.0 0.00 0.00 0.00 80 1019.2
20260509174906 53 48 3.0 3.0 0.00 0.00 0.00 79 1019.1
20260509174840 54 138 0.0 2.0 0.00 0.00 0.00 79 1019.1
20260509174832 53 154 0.0 2.0 0.00 0.00 0.00 79 1019.3
20260509174816 53 131 0.0 2.0 0.00 0.00 0.00 79 1019.1
20260509174759 54 138 0.0 2.0 0.00 0.00 0.00 79 1019.1
20260509174441 54 105 0.0 2.0 0.00 0.00 0.00 79 1019.1
20260509174341 54 131 0.0 2.0 0.00 0.00 0.00 80 1018.9
20260509174243 54 161 0.0 2.0 0.00 0.00 0.00 79 1019.0
20260509174229 54 164 0.0 1.0 0.00 0.00 0.00 79 1019.0
20260509174218 54 160 0.0 2.0 0.00 0.00 0.00 79 1019.2
20260509174153 54 145 0.0 2.0 0.00 0.00 0.00 79 1019.0
20260509174138 54 158 0.0 2.0 0.00 0.00 0.00 79 1019.0
20260509174122 54 99 1.0 2.0 0.00 0.00 0.00 79 1019.0
20260509174106 54 160 0.0 1.0 0.00 0.00 0.00 79 1019.1
20260509174051 54 164 0.0 1.0 0.00 0.00 0.00 79 1019.1
20260509173603 54 163 0.0 1.0 0.00 0.00 0.00 79 1018.9
20260509173241 54 120 0.0 1.0 0.00 0.00 0.00 79 1019.0
20260509173142 54 146 0.0 1.0 0.00 0.00 0.00 79 1019.0
20260509173043 54 168 0.0 1.0 0.00 0.00 0.00 79 1019.0
20260509172940 54 177 0.0 1.0 0.00 0.00 0.00 78 1019.0
20260509172916 54 168 0.0 0.0 0.00 0.00 0.00 79 1019.1
20260509172907 54 178 0.0 1.0 0.00 0.00 0.00 78 1019.1
20260509172851 54 175 0.0 1.0 0.00 0.00 0.00 78 1019.2
20260509172835 54 171 0.0 1.0 0.00 0.00 0.00 78 1019.1
20260509172602 54 154 0.0 1.0 0.00 0.00 0.00 78 1018.8
20260509172546 54 154 0.0 1.0 0.00 0.00 0.00 78 1019.2
20260509172530 54 135 0.0 1.0 0.00 0.00 0.00 78 1018.9
20260509172514 54 156 0.0 1.0 0.00 0.00 0.00 78 1019.2
20260509172458 54 142 0.0 1.0 0.00 0.00 0.00 77 1019.0
20260509172433 54 141 0.0 1.0 0.00 0.00 0.00 78 1019.2
20260509172155 54 166 0.0 0.0 0.00 0.00 0.00 78 1019.1
20260509172140 54 161 0.0 0.0 0.00 0.00 0.00 78 1019.2
20260509172124 54 172 0.0 0.0 0.00 0.00 0.00 78 1019.1
20260509171637 54 167 0.0 0.0 0.00 0.00 0.00 78 1018.9
20260509171621 54 167 0.0 0.0 0.00 0.00 0.00 78 1018.9
20260509171605 54 173 0.0 1.0 0.00 0.00 0.00 78 1019.2
20260509171116 54 174 0.0 1.0 0.00 0.00 0.00 78 1018.9
20260509171100 54 173 0.0 1.0 0.00 0.00 0.00 78 1018.9
20260509170820 54 144 0.0 1.0 0.00 0.00 0.00 78 1018.8
20260509170816 54 169 0.0 0.0 0.00 0.00 0.00 78 1018.8
20260509170812 54 178 0.0 0.0 0.00 0.00 0.00 77 1018.8
20260509170804 54 173 0.0 1.0 0.00 0.00 0.00 78 1018.8
20260509170748 54 168 0.0 1.0 0.00 0.00 0.00 78 1019.0
20260509170725 54 159 0.0 1.0 0.00 0.00 0.00 78 1019.0
20260509170709 54 158 0.0 1.0 0.00 0.00 0.00 77 1018.9
20260509170652 54 128 0.0 1.0 0.00 0.00 0.00 77 1018.9
20260509170636 54 162 0.0 1.0 0.00 0.00 0.00 78 1018.8
20260509170621 54 162 0.0 1.0 0.00 0.00 0.00 78 1018.9
20260509170602 54 144 0.0 1.0 0.00 0.00 0.00 78 1018.8
20260509170338 54 153 0.0 1.0 0.00 0.00 0.00 77 1019.1
20260509170323 54 108 0.0 1.0 0.00 0.00 0.00 77 1018.9
20260509170044 54 175 0.0 0.0 0.00 0.00 0.00 78 1018.8
20260509170027 54 169 0.0 0.0 0.00 0.00 0.00 78 1018.8
20260509165801 54 167 0.0 0.0 0.00 0.00 0.00 78 1018.9
20260509165524 54 169 0.0 0.0 0.00 0.00 0.00 78 1019.0
20260509165508 54 180 0.0 0.0 0.00 0.00 0.00 77 1019.1
20260509164718 54 178 0.0 1.0 0.00 0.00 0.00 78 1018.8
20260509164617 54 176 0.0 1.0 0.00 0.00 0.00 77 1019.1
20260509164549 54 182 0.0 1.0 0.00 0.00 0.00 77 1019.1
20260509164520 54 179 0.0 1.0 0.00 0.00 0.00 77 1018.9
20260509164417 54 162 0.0 2.0 0.00 0.00 0.00 77 1018.9
20260509164316 54 80 0.0 2.0 0.00 0.00 0.00 77 1018.8
20260509164218 54 80 0.0 2.0 0.00 0.00 0.00 77 1018.8
20260509164117 54 168 0.0 2.0 0.00 0.00 0.00 77 1018.7
20260509164049 54 160 0.0 2.0 0.00 0.00 0.00 77 1018.7
20260509164015 54 146 0.0 2.0 0.00 0.00 0.00 77 1019.0
20260509163917 54 139 0.0 2.0 0.00 0.00 0.00 77 1019.0
20260509163816 54 139 0.0 2.0 0.00 0.00 0.00 77 1018.8
20260509163716 54 93 0.0 2.0 0.00 0.00 0.00 77 1019.0
20260509163618 54 78 1.0 2.0 0.00 0.00 0.00 77 1018.7
20260509163604 54 165 0.0 2.0 0.00 0.00 0.00 76 1018.7
20260509163555 54 150 0.0 2.0 0.00 0.00 0.00 76 1019.1
20260509163538 54 177 0.0 1.0 0.00 0.00 0.00 76 1018.9
20260509163221 54 159 0.0 1.0 0.00 0.00 0.00 76 1018.9
20260509163204 54 154 0.0 1.0 0.00 0.00 0.00 76 1019.0
20260509163147 54 132 0.0 1.0 0.00 0.00 0.00 76 1019.0
20260509163138 54 55 1.0 1.0 0.00 0.00 0.00 76 1019.0
20260509162817 54 139 0.0 1.0 0.00 0.00 0.00 76 1018.8
20260509162802 55 176 0.0 0.0 0.00 0.00 0.00 76 1018.9
20260509162753 54 157 0.0 1.0 0.00 0.00 0.00 76 1018.8
20260509162737 54 119 0.0 1.0 0.00 0.00 0.00 76 1019.0
20260509162724 54 169 0.0 0.0 0.00 0.00 0.00 76 1019.0
20260509162715 54 161 0.0 0.0 0.00 0.00 0.00 76 1018.9
20260509162659 55 112 0.0 0.0 0.00 0.00 0.00 76 1018.8
20260509162643 55 132 0.0 0.0 0.00 0.00 0.00 76 1019.0
20260509162407 55 179 0.0 0.0 0.00 0.00 0.00 76 1018.9
20260509162137 55 166 0.0 0.0 0.00 0.00 0.00 75 1019.0
20260509161817 55 179 0.0 0.0 0.00 0.00 0.00 76 1018.8
20260509161717 55 161 0.0 0.0 0.00 0.00 0.00 76 1019.2
20260509161617 55 167 0.0 0.0 0.00 0.00 0.00 76 1019.1
20260509161548 55 156 0.0 0.0 0.00 0.00 0.00 76 1019.1
20260509161516 55 175 0.0 0.0 0.00 0.00 0.00 76 1019.1
20260509161417 55 172 0.0 0.0 0.00 0.00 0.00 76 1018.7
20260509161340 55 168 0.0 0.0 0.00 0.00 0.00 76 1018.9
20260509161323 55 177 0.0 0.0 0.00 0.00 0.00 76 1019.2
20260509161307 55 175 0.0 0.0 0.00 0.00 0.00 76 1019.0
20260509161252 55 175 0.0 0.0 0.00 0.00 0.00 77 1019.0
20260509161024 54 170 0.0 0.0 0.00 0.00 0.00 76 1019.1
20260509161009 54 162 0.0 0.0 0.00 0.00 0.00 76 1019.1
20260509160732 54 141 0.0 2.0 0.00 0.00 0.00 76 1019.0
20260509160720 54 141 0.0 2.0 0.00 0.00 0.00 77 1019.0
20260509160404 54 173 0.0 2.0 0.00 0.00 0.00 77 1019.2
20260509160306 54 170 0.0 2.0 0.00 0.00 0.00 77 1019.1
20260509160204 54 172 0.0 2.0 0.00 0.00 0.00 77 1019.1
20260509160114 54 152 0.0 2.0 0.00 0.00 0.00 78 1019.4
20260509160100 54 151 0.0 2.0 0.00 0.00 0.00 77 1019.4
20260509160005 54 167 0.0 2.0 0.00 0.00 0.00 78 1019.1
20260509155905 54 170 0.0 2.0 0.00 0.00 0.00 78 1018.9
20260509155804 54 168 0.0 2.0 0.00 0.00 0.00 77 1018.9
20260509155748 54 117 0.0 2.0 0.00 0.00 0.00 77 1019.0
20260509155720 54 162 0.0 1.0 0.00 0.00 0.00 77 1019.0
20260509155441 55 119 0.0 0.0 0.00 0.00 0.00 77 1018.9
20260509155432 54 124 0.0 0.0 0.00 0.00 0.00 77 1019.1
20260509155416 55 124 0.0 0.0 0.00 0.00 0.00 77 1019.0
20260509155359 55 144 0.0 0.0 0.00 0.00 0.00 77 1019.1
20260509155342 55 119 0.0 0.0 0.00 0.00 0.00 77 1018.9
20260509155111 55 119 0.0 0.0 0.00 0.00 0.00 77 1019.1
20260509155054 55 181 0.0 0.0 0.00 0.00 0.00 77 1019.1
20260509155037 55 182 0.0 0.0 0.00 0.00 0.00 77 1019.0
20260509154551 55 182 0.0 0.0 0.00 0.00 0.00 77 1019.2
20260509154452 55 182 0.0 0.0 0.00 0.00 0.00 77 1019.1
20260509154351 55 182 0.0 0.0 0.00 0.00 0.00 77 1019.0
20260509154251 55 182 0.0 0.0 0.00 0.00 0.00 77 1019.0
20260509154153 55 181 0.0 0.0 0.00 0.00 0.00 77 1018.9
20260509154129 55 181 0.0 0.0 0.00 0.00 0.00 77 1019.0
20260509154112 55 182 0.0 0.0 0.00 0.00 0.00 77 1019.1
20260509153835 55 182 0.0 0.0 0.00 0.00 0.00 77 1019.1
20260509153818 55 185 0.0 0.0 0.00 0.00 0.00 77 1019.0
20260509153551 55 185 0.0 0.0 0.00 0.00 0.00 77 1019.0
20260509153528 55 188 0.0 1.0 0.00 0.00 0.00 77 1019.1
20260509153511 55 188 0.0 1.0 0.00 0.00 0.00 77 1019.0
20260509153151 55 177 0.0 2.0 0.00 0.00 0.00 77 1019.0
20260509153103 55 155 0.0 2.0 0.00 0.00 0.00 77 1018.8
20260509153047 55 173 0.0 2.0 0.00 0.00 0.00 77 1019.0
20260509153031 55 174 0.0 2.0 0.00 0.00 0.00 77 1019.0
20260509153016 55 180 0.0 2.0 0.00 0.00 0.00 77 1019.1
20260509152955 55 181 0.0 2.0 0.00 0.00 0.00 77 1019.0
20260509152933 55 155 0.0 2.0 0.00 0.00 0.00 77 1019.0
20260509152436 55 179 0.0 1.0 0.00 0.00 0.00 76 1019.1
20260509152420 55 178 0.0 1.0 0.00 0.00 0.00 76 1019.2
20260509152151 55 181 0.0 1.0 0.00 0.00 0.00 77 1019.0
20260509152135 55 176 0.0 1.0 0.00 0.00 0.00 76 1019.1
20260509151900 55 162 0.0 2.0 0.00 0.00 0.00 75 1019.0
20260509151844 55 163 0.0 2.0 0.00 0.00 0.00 75 1019.1
20260509151822 55 178 0.0 6.0 0.00 0.00 0.00 75 1019.1
20260509151807 55 177 0.0 6.0 0.00 0.00 0.00 75 1019.0
20260509151532 55 163 0.0 6.0 0.00 0.00 0.00 74 1019.0
20260509151246 55 139 0.0 6.0 0.00 0.00 0.00 74 1019.0
20260509151230 55 52 1.0 6.0 0.00 0.00 0.00 74 1019.2
20260509150651 55 58 2.0 6.0 0.00 0.00 0.00 73 1019.0
20260509150552 56 136 0.0 2.0 0.00 0.00 0.00 73 1019.1
20260509150451 56 168 0.0 2.0 0.00 0.00 0.00 74 1019.0
20260509150427 56 133 0.0 2.0 0.00 0.00 0.00 73 1019.2
20260509150412 56 179 0.0 2.0 0.00 0.00 0.00 74 1019.2
20260509150105 56 163 0.0 2.0 0.00 0.00 0.00 74 1019.1
20260509145952 56 148 0.0 2.0 0.00 0.00 0.00 73 1019.1
20260509145851 56 65 1.0 2.0 0.00 0.00 0.00 73 1019.0
20260509145752 56 177 0.0 0.0 0.00 0.00 0.00 74 1018.9
20260509145734 56 175 0.0 0.0 0.00 0.00 0.00 73 1019.3
20260509145712 56 177 0.0 0.0 0.00 0.00 0.00 74 1019.1
20260509145439 55 178 0.0 0.0 0.00 0.00 0.00 73 1019.1
20260509145430 56 180 0.0 0.0 0.00 0.00 0.00 73 1019.0
20260509145415 56 179 0.0 0.0 0.00 0.00 0.00 74 1018.9
20260509145359 55 179 0.0 0.0 0.00 0.00 0.00 73 1019.1
20260509145340 55 178 0.0 0.0 0.00 0.00 0.00 73 1019.1
20260509145114 55 150 0.0 0.0 0.00 0.00 0.00 73 1019.2
20260509144751 56 168 0.0 0.0 0.00 0.00 0.00 74 1019.3
20260509144651 56 171 0.0 1.0 0.00 0.00 0.00 75 1019.1
20260509144552 56 171 0.0 1.0 0.00 0.00 0.00 75 1019.1
20260509144451 56 162 0.0 1.0 0.00 0.00 0.00 75 1019.2
20260509144351 56 180 0.0 1.0 0.00 0.00 0.00 76 1019.1
20260509144251 55 182 0.0 1.0 0.00 0.00 0.00 76 1019.0
20260509144151 55 182 0.0 1.0 0.00 0.00 0.00 75 1019.2
20260509144053 55 181 0.0 1.0 0.00 0.00 0.00 75 1019.2
20260509143952 55 172 0.0 1.0 0.00 0.00 0.00 75 1019.3
20260509143840 55 109 0.0 1.0 0.00 0.00 0.00 75 1019.2
20260509143740 55 162 0.0 0.0 0.00 0.00 0.00 75 1018.9
20260509143639 55 186 0.0 0.0 0.00 0.00 0.00 75 1019.2
20260509143539 55 175 0.0 0.0 0.00 0.00 0.00 75 1019.1
20260509143440 55 174 0.0 0.0 0.00 0.00 0.00 75 1019.1
20260509143416 55 163 0.0 1.0 0.00 0.00 0.00 75 1019.1
20260509143400 55 165 0.0 1.0 0.00 0.00 0.00 75 1018.9
20260509143040 55 176 0.0 1.0 0.00 0.00 0.00 74 1019.0
20260509143014 55 172 0.0 1.0 0.00 0.00 0.00 75 1019.1
20260509142958 55 172 0.0 1.0 0.00 0.00 0.00 75 1018.9
20260509142942 55 146 0.0 1.0 0.00 0.00 0.00 74 1019.0
20260509142707 55 164 0.0 1.0 0.00 0.00 0.00 74 1019.1
20260509142700 55 125 0.0 1.0 0.00 0.00 0.00 74 1019.1
20260509142339 56 150 0.0 0.0 0.00 0.00 0.00 75 1019.2
20260509142239 55 176 0.0 0.0 0.00 0.00 0.00 75 1019.0
20260509142138 55 173 0.0 0.0 0.00 0.00 0.00 74 1019.0
20260509142041 55 173 0.0 0.0 0.00 0.00 0.00 73 1019.0
20260509141939 55 176 0.0 0.0 0.00 0.00 0.00 73 1019.0
20260509141839 56 168 0.0 0.0 0.00 0.00 0.00 73 1019.0
20260509141739 56 170 0.0 1.0 0.00 0.00 0.00 73 1019.1
20260509141629 55 161 0.0 1.0 0.00 0.00 0.00 73 1019.2
20260509141548 55 161 0.0 1.0 0.00 0.00 0.00 73 1019.2
20260509141527 55 173 0.0 1.0 0.00 0.00 0.00 73 1019.0
20260509141427 55 144 0.0 1.0 0.00 0.00 0.00 73 1019.1
20260509141329 55 137 0.0 1.0 0.00 0.00 0.00 73 1019.0
20260509141227 55 123 0.0 1.0 0.00 0.00 0.00 73 1019.1
20260509141129 55 167 0.0 1.0 0.00 0.00 0.00 73 1019.1
20260509141047 55 158 0.0 1.0 0.00 0.00 0.00 72 1019.1
20260509141027 55 142 0.0 1.0 0.00 0.00 0.00 72 1019.0
20260509141002 55 142 0.0 1.0 0.00 0.00 0.00 72 1019.1
20260509140948 55 151 0.0 1.0 0.00 0.00 0.00 72 1019.1
20260509140627 56 167 0.0 1.0 0.00 0.00 0.00 72 1019.0
20260509140547 56 167 0.0 1.0 0.00 0.00 0.00 72 1019.0
20260509140528 56 167 0.0 1.0 0.00 0.00 0.00 72 1019.1
20260509140427 56 174 0.0 1.0 0.00 0.00 0.00 72 1019.0
20260509140327 56 159 0.0 1.0 0.00 0.00 0.00 71 1019.0
20260509140227 56 121 0.0 1.0 0.00 0.00 0.00 72 1019.1
20260509140129 56 171 0.0 0.0 0.00 0.00 0.00 72 1019.2
20260509140059 56 172 0.0 0.0 0.00 0.00 0.00 72 1019.2
20260509140028 56 175 0.0 0.0 0.00 0.00 0.00 72 1019.1
20260509140005 56 179 0.0 0.0 0.00 0.00 0.00 71 1018.9
20260509135947 56 172 0.0 0.0 0.00 0.00 0.00 71 1019.0
20260509135626 56 176 0.0 0.0 0.00 0.00 0.00 71 1019.1
20260509135547 56 176 0.0 0.0 0.00 0.00 0.00 71 1019.1
20260509135528 56 176 0.0 0.0 0.00 0.00 0.00 70 1018.9
20260509135427 56 176 0.0 0.0 0.00 0.00 0.00 70 1019.1
20260509135327 56 149 0.0 0.0 0.00 0.00 0.00 71 1019.0
20260509135227 56 149 0.0 0.0 0.00 0.00 0.00 71 1019.1
20260509135127 56 174 0.0 0.0 0.00 0.00 0.00 71 1019.0
20260509135047 56 174 0.0 0.0 0.00 0.00 0.00 71 1019.0
20260509135027 56 174 0.0 0.0 0.00 0.00 0.00 71 1018.9
20260509134927 56 167 0.0 0.0 0.00 0.00 0.00 72 1019.1
20260509134827 56 131 0.0 0.0 0.00 0.00 0.00 71 1019.2
20260509134727 56 183 0.0 0.0 0.00 0.00 0.00 71 1019.1
20260509134645 56 174 0.0 0.0 0.00 0.00 0.00 70 1019.2
20260509134630 56 166 0.0 0.0 0.00 0.00 0.00 70 1019.2
20260509134622 56 188 0.0 0.0 0.00 0.00 0.00 70 1019.1
20260509134606 56 188 0.0 0.0 0.00 0.00 0.00 70 1019.0
20260509134551 56 188 0.0 0.0 0.00 0.00 0.00 70 1019.1
20260509134314 56 167 0.0 0.0 0.00 0.00 0.00 71 1019.0
20260509134257 56 177 0.0 0.0 0.00 0.00 0.00 71 1019.0
20260509134249 56 177 0.0 0.0 0.00 0.00 0.00 72 1019.1
20260509134234 56 175 0.0 0.0 0.00 0.00 0.00 72 1019.0
20260509133957 56 157 0.0 0.0 0.00 0.00 0.00 70 1019.1
20260509133942 56 188 0.0 0.0 0.00 0.00 0.00 70 1019.1
20260509133926 56 188 0.0 0.0 0.00 0.00 0.00 70 1019.1
20260509133439 56 184 0.0 0.0 0.00 0.00 0.00 70 1019.0
20260509133422 56 180 0.0 0.0 0.00 0.00 0.00 70 1019.2
20260509133407 56 179 0.0 0.0 0.00 0.00 0.00 70 1019.2
20260509133351 56 177 0.0 0.0 0.00 0.00 0.00 70 1019.2
20260509133343 56 167 0.0 0.0 0.00 0.00 0.00 70 1019.1
20260509133327 56 169 0.0 0.0 0.00 0.00 0.00 72 1019.3
20260509132832 55 177 0.0 0.0 0.00 0.00 0.00 71 1019.2
20260509132818 55 159 0.0 0.0 0.00 0.00 0.00 71 1019.2
20260509132549 55 156 0.0 0.0 0.00 0.00 0.00 72 1019.3
20260509132533 55 172 0.0 0.0 0.00 0.00 0.00 73 1019.3
20260509132516 55 169 0.0 0.0 0.00 0.00 0.00 73 1019.3
20260509132239 55 181 0.0 0.0 0.00 0.00 0.00 72 1019.1
20260509131927 55 160 0.0 0.0 0.00 0.00 0.00 73 1019.1
20260509131828 55 174 0.0 0.0 0.00 0.00 0.00 73 1019.2
20260509131726 55 183 0.0 0.0 0.00 0.00 0.00 73 1019.2
20260509131628 55 183 0.0 0.0 0.00 0.00 0.00 73 1019.2
20260509131547 55 185 0.0 0.0 0.00 0.00 0.00 72 1019.2
20260509131528 55 187 0.0 0.0 0.00 0.00 0.00 73 1019.2
20260509131447 55 185 0.0 0.0 0.00 0.00 0.00 75 1019.2
20260509131439 55 183 0.0 0.0 0.00 0.00 0.00 73 1019.2
20260509131424 55 183 0.0 0.0 0.00 0.00 0.00 73 1019.2
20260509131407 55 185 0.0 0.0 0.00 0.00 0.00 74 1019.2
20260509131141 55 186 0.0 0.0 0.00 0.00 0.00 74 1019.2
20260509131125 55 179 0.0 0.0 0.00 0.00 0.00 74 1019.2
20260509131117 55 180 0.0 0.0 0.00 0.00 0.00 74 1019.2
20260509131101 55 180 0.0 0.0 0.00 0.00 0.00 74 1019.1
20260509130823 55 185 0.0 0.0 0.00 0.00 0.00 75 1019.2
20260509130807 55 183 0.0 0.0 0.00 0.00 0.00 75 1019.2
20260509130528 55 188 0.0 0.0 0.00 0.00 0.00 76 1019.3
20260509130429 55 188 0.0 0.0 0.00 0.00 0.00 76 1019.1
20260509130327 55 187 0.0 0.0 0.00 0.00 0.00 75 1019.1
20260509130226 55 187 0.0 0.0 0.00 0.00 0.00 75 1019.1
20260509130127 55 181 0.0 0.0 0.00 0.00 0.00 76 1019.2
20260509130027 55 180 0.0 0.0 0.00 0.00 0.00 76 1019.2
20260509125927 55 180 0.0 0.0 0.00 0.00 0.00 76 1019.1
20260509125827 55 180 0.0 0.0 0.00 0.00 0.00 75 1019.1
20260509125727 55 179 0.0 0.0 0.00 0.00 0.00 75 1019.1
20260509125628 55 175 0.0 0.0 0.00 0.00 0.00 75 1019.4
20260509125547 55 175 0.0 0.0 0.00 0.00 0.00 74 1019.4
20260509125527 55 176 0.0 0.0 0.00 0.00 0.00 74 1019.1
20260509125429 55 172 0.0 0.0 0.00 0.00 0.00 74 1019.0
20260509125405 55 164 0.0 0.0 0.00 0.00 0.00 75 1019.3
20260509125348 55 171 0.0 0.0 0.00 0.00 0.00 75 1019.3
20260509125048 55 177 0.0 0.0 0.00 0.00 0.00 76 1019.2
20260509125028 55 177 0.0 0.0 0.00 0.00 0.00 75 1019.4
20260509124927 55 177 0.0 0.0 0.00 0.00 0.00 76 1019.3
20260509124827 55 178 0.0 0.0 0.00 0.00 0.00 75 1019.2
20260509124802 55 166 0.0 0.0 0.00 0.00 0.00 75 1019.3
20260509124746 55 180 0.0 0.0 0.00 0.00 0.00 75 1019.2
20260509124732 55 180 0.0 0.0 0.00 0.00 0.00 75 1019.2
20260509124724 55 179 0.0 0.0 0.00 0.00 0.00 75 1019.3
20260509124709 55 168 0.0 0.0 0.00 0.00 0.00 75 1019.1
20260509124127 55 181 0.0 0.0 0.00 0.00 0.00 75 1019.2
20260509124047 55 173 0.0 0.0 0.00 0.00 0.00 75 1019.2
20260509124028 55 156 0.0 1.0 0.00 0.00 0.00 75 1019.0
20260509123927 55 179 0.0 1.0 0.00 0.00 0.00 74 1019.2
20260509123827 55 182 0.0 1.0 0.00 0.00 0.00 74 1019.3
20260509123726 55 184 0.0 1.0 0.00 0.00 0.00 75 1019.2
20260509123628 55 182 0.0 1.0 0.00 0.00 0.00 75 1019.2
20260509123548 55 172 0.0 1.0 0.00 0.00 0.00 75 1019.2
20260509123528 55 169 0.0 1.0 0.00 0.00 0.00 75 1019.2
20260509123428 55 145 0.0 1.0 0.00 0.00 0.00 74 1019.0
20260509123347 55 186 0.0 3.0 0.00 0.00 0.00 73 1019.4
20260509123340 55 184 0.0 1.0 0.00 0.00 0.00 74 1019.2
20260509123324 55 172 0.0 2.0 0.00 0.00 0.00 74 1019.2
20260509123309 55 174 0.0 3.0 0.00 0.00 0.00 73 1019.4
20260509123027 55 182 0.0 3.0 0.00 0.00 0.00 73 1019.3
20260509122928 55 178 0.0 3.0 0.00 0.00 0.00 73 1019.2
20260509122827 55 174 0.0 3.0 0.00 0.00 0.00 73 1019.4
20260509122808 55 176 0.0 3.0 0.00 0.00 0.00 73 1019.4
20260509122753 55 167 0.0 3.0 0.00 0.00 0.00 73 1019.2
20260509122739 55 168 0.0 3.0 0.00 0.00 0.00 73 1019.2
20260509122502 55 167 0.0 3.0 0.00 0.00 0.00 72 1019.4
20260509122454 55 152 0.0 3.0 0.00 0.00 0.00 73 1019.3
20260509122438 55 150 0.0 3.0 0.00 0.00 0.00 73 1019.4
20260509122422 55 154 0.0 3.0 0.00 0.00 0.00 72 1019.4
20260509122407 55 31 1.0 3.0 0.00 0.00 0.00 72 1019.4
20260509122138 55 69 0.0 3.0 0.00 0.00 0.00 72 1019.2
20260509122123 56 80 0.0 1.0 0.00 0.00 0.00 72 1019.4
20260509121847 56 182 0.0 1.0 0.00 0.00 0.00 74 1019.4
20260509121547 56 156 0.0 1.0 0.00 0.00 0.00 72 1019.3
20260509121528 56 151 0.0 1.0 0.00 0.00 0.00 72 1019.4
20260509121427 56 170 0.0 1.0 0.00 0.00 0.00 72 1019.4
20260509121327 56 174 0.0 1.0 0.00 0.00 0.00 72 1019.1
20260509121227 56 158 0.0 1.0 0.00 0.00 0.00 72 1019.5
20260509121127 56 173 0.0 0.0 0.00 0.00 0.00 72 1019.6
20260509121049 56 160 0.0 0.0 0.00 0.00 0.00 72 1019.6
20260509121027 56 179 0.0 0.0 0.00 0.00 0.00 72 1019.2
20260509120927 56 179 0.0 0.0 0.00 0.00 0.00 73 1019.2
20260509120828 56 157 0.0 0.0 0.00 0.00 0.00 73 1019.4
20260509120727 56 186 0.0 0.0 0.00 0.00 0.00 73 1019.3
20260509120709 56 181 0.0 0.0 0.00 0.00 0.00 72 1019.3
20260509120655 56 179 0.0 0.0 0.00 0.00 0.00 72 1019.3
20260509120647 56 179 0.0 0.0 0.00 0.00 0.00 72 1019.4
20260509120327 56 179 0.0 0.0 0.00 0.00 0.00 72 1019.3
20260509120227 56 177 0.0 0.0 0.00 0.00 0.00 72 1019.2
20260509120132 56 188 0.0 1.0 0.00 0.00 0.00 72 1019.3
20260509120128 56 174 0.0 0.0 0.00 0.00 0.00 72 1019.3
20260509120112 56 176 0.0 0.0 0.00 0.00 0.00 73 1019.3
20260509120047 56 166 0.0 0.0 0.00 0.00 0.00 73 1019.4
20260509120031 56 157 0.0 0.0 0.00 0.00 0.00 73 1019.4
20260509120015 56 131 0.0 1.0 0.00 0.00 0.00 72 1019.3
20260509120000 56 188 0.0 1.0 0.00 0.00 0.00 73 1019.3
20260509115503 56 174 0.0 1.0 0.00 0.00 0.00 72 1019.2
20260509115447 56 173 0.0 1.0 0.00 0.00 0.00 71 1019.3
20260509115431 56 159 0.0 1.0 0.00 0.00 0.00 71 1019.4
20260509115416 56 169 0.0 1.0 0.00 0.00 0.00 71 1019.1
20260509115359 56 164 0.0 1.0 0.00 0.00 0.00 71 1019.1
20260509114828 56 111 0.0 1.0 0.00 0.00 0.00 70 1019.4
20260509114811 56 171 0.0 0.0 0.00 0.00 0.00 71 1019.2
20260509114755 56 177 0.0 0.0 0.00 0.00 0.00 71 1019.4
20260509114740 56 178 0.0 0.0 0.00 0.00 0.00 70 1019.4
20260509114428 56 179 0.0 0.0 0.00 0.00 0.00 70 1019.3
20260509114406 57 162 0.0 0.0 0.00 0.00 0.00 70 1019.4
20260509114349 57 179 0.0 0.0 0.00 0.00 0.00 71 1019.5
20260509114331 57 180 0.0 0.0 0.00 0.00 0.00 70 1019.4
20260509114315 57 170 0.0 0.0 0.00 0.00 0.00 70 1019.4
20260509114047 57 150 0.0 0.0 0.00 0.00 0.00 69 1019.5
20260509113727 56 164 0.0 0.0 0.00 0.00 0.00 69 1019.4
20260509113626 56 170 0.0 0.0 0.00 0.00 0.00 70 1019.4
20260509113547 56 167 0.0 0.0 0.00 0.00 0.00 70 1019.4
20260509113527 56 150 0.0 0.0 0.00 0.00 0.00 70 1019.4
20260509113427 56 183 0.0 0.0 0.00 0.00 0.00 71 1019.3
20260509113327 56 176 0.0 0.0 0.00 0.00 0.00 71 1019.5
20260509113228 56 182 0.0 0.0 0.00 0.00 0.00 72 1019.3
20260509113126 56 181 0.0 1.0 0.00 0.00 0.00 71 1019.4
20260509113047 56 180 0.0 1.0 0.00 0.00 0.00 71 1019.4
20260509113027 56 166 0.0 1.0 0.00 0.00 0.00 71 1019.4
20260509112942 56 153 0.0 1.0 0.00 0.00 0.00 71 1019.4
20260509112934 56 167 0.0 1.0 0.00 0.00 0.00 72 1019.6
20260509112919 56 178 0.0 1.0 0.00 0.00 0.00 71 1019.4
20260509112902 56 169 0.0 1.0 0.00 0.00 0.00 71 1019.3
20260509112846 56 154 0.0 1.0 0.00 0.00 0.00 71 1019.4
20260509112620 56 165 0.0 1.0 0.00 0.00 0.00 70 1019.4
20260509112605 56 149 0.0 1.0 0.00 0.00 0.00 71 1019.6
20260509112549 56 176 0.0 1.0 0.00 0.00 0.00 70 1019.4
20260509112533 56 174 0.0 1.0 0.00 0.00 0.00 69 1019.2
20260509112257 56 177 0.0 1.0 0.00 0.00 0.00 69 1019.5
20260509112248 56 178 0.0 1.0 0.00 0.00 0.00 69 1019.3
20260509112232 56 170 0.0 1.0 0.00 0.00 0.00 69 1019.5
20260509111728 56 151 0.0 1.0 0.00 0.00 0.00 68 1019.4
20260509111719 56 129 0.0 1.0 0.00 0.00 0.00 68 1019.6
20260509111703 56 137 0.0 1.0 0.00 0.00 0.00 69 1019.3
20260509111647 56 181 0.0 1.0 0.00 0.00 0.00 71 1019.4
20260509111410 56 181 0.0 1.0 0.00 0.00 0.00 69 1019.4
20260509111355 56 183 0.0 1.0 0.00 0.00 0.00 69 1019.4
20260509111333 56 182 0.0 1.0 0.00 0.00 0.00 69 1019.3
20260509111056 56 184 0.0 1.0 0.00 0.00 0.00 69 1019.4
20260509110547 56 165 0.0 1.0 0.00 0.00 0.00 67 1019.3
20260509110515 56 136 0.0 1.0 0.00 0.00 0.00 68 1019.4
20260509110415 56 175 0.0 1.0 0.00 0.00 0.00 69 1019.4
20260509110352 56 179 0.0 1.0 0.00 0.00 0.00 69 1019.4
20260509110336 56 168 0.0 1.0 0.00 0.00 0.00 69 1019.4
20260509110059 56 175 0.0 1.0 0.00 0.00 0.00 69 1019.6
20260509110015 56 182 0.0 1.0 0.00 0.00 0.00 70 1019.5
20260509105915 56 175 0.0 1.0 0.00 0.00 0.00 71 1019.6
20260509105816 56 167 0.0 1.0 0.00 0.00 0.00 71 1019.4
20260509105716 56 182 0.0 1.0 0.00 0.00 0.00 72 1019.4
20260509105615 56 134 0.0 1.0 0.00 0.00 0.00 72 1019.4
20260509105548 56 154 0.0 1.0 0.00 0.00 0.00 74 1019.4
20260509105517 56 176 0.0 1.0 0.00 0.00 0.00 74 1019.7
20260509105415 56 160 0.0 1.0 0.00 0.00 0.00 74 1019.5
20260509105315 56 96 0.0 1.0 0.00 0.00 0.00 73 1019.3
20260509105257 56 160 0.0 1.0 0.00 0.00 0.00 74 1019.4
20260509105240 56 181 0.0 0.0 0.00 0.00 0.00 74 1019.5
20260509105214 56 185 0.0 0.0 0.00 0.00 0.00 74 1019.5
20260509105157 56 185 0.0 0.0 0.00 0.00 0.00 73 1019.7
20260509104615 56 172 0.0 0.0 0.00 0.00 0.00 72 1019.4
20260509104547 56 182 0.0 0.0 0.00 0.00 0.00 72 1019.4
20260509104515 56 178 0.0 0.0 0.00 0.00 0.00 73 1019.5
20260509104415 56 190 0.0 0.0 0.00 0.00 0.00 72 1019.5
20260509104355 56 138 0.0 0.0 0.00 0.00 0.00 72 1019.3
20260509104340 56 159 0.0 0.0 0.00 0.00 0.00 72 1019.6
20260509104324 56 167 0.0 2.0 0.00 0.00 0.00 73 1019.7
20260509104311 56 184 0.0 2.0 0.00 0.00 0.00 73 1019.7
20260509104040 56 179 0.0 2.0 0.00 0.00 0.00 73 1019.7
20260509104025 56 140 0.0 2.0 0.00 0.00 0.00 73 1019.3
20260509104008 56 180 0.0 2.0 0.00 0.00 0.00 73 1019.6
20260509103735 56 181 0.0 2.0 0.00 0.00 0.00 73 1019.6
20260509103435 56 107 0.0 2.0 0.00 0.00 0.00 74 1019.4
20260509103430 56 143 0.0 2.0 0.00 0.00 0.00 72 1019.6
20260509103424 56 182 0.0 2.0 0.00 0.00 0.00 74 1019.7
20260509103408 56 160 0.0 2.0 0.00 0.00 0.00 74 1019.5
20260509103353 56 177 0.0 2.0 0.00 0.00 0.00 73 1019.5
20260509103337 56 165 0.0 2.0 0.00 0.00 0.00 74 1019.4
20260509103108 56 187 0.0 2.0 0.00 0.00 0.00 73 1019.5
20260509103052 56 179 0.0 2.0 0.00 0.00 0.00 74 1019.7
20260509103036 56 177 0.0 2.0 0.00 0.00 0.00 73 1019.6
20260509103021 56 175 0.0 2.0 0.00 0.00 0.00 73 1019.9
20260509102512 56 166 0.0 2.0 0.00 0.00 0.00 73 1019.5
20260509102446 56 170 0.0 2.0 0.00 0.00 0.00 73 1019.4
20260509102430 56 204 0.0 2.0 0.00 0.00 0.00 73 1019.6
20260509102111 56 156 0.0 0.0 0.00 0.00 0.00 73 1019.6
20260509102045 56 182 0.0 0.0 0.00 0.00 0.00 75 1019.6
20260509102011 56 179 0.0 0.0 0.00 0.00 0.00 75 1019.9
20260509101911 55 175 0.0 0.0 0.00 0.00 0.00 74 1019.5
20260509101811 55 174 0.0 0.0 0.00 0.00 0.00 75 1019.5
20260509101712 55 165 0.0 0.0 0.00 0.00 0.00 74 1019.6
20260509101611 55 166 0.0 1.0 0.00 0.00 0.00 74 1019.8
20260509101544 55 154 0.0 1.0 0.00 0.00 0.00 74 1019.8
20260509101512 55 172 0.0 1.0 0.00 0.00 0.00 74 1019.5
20260509101412 55 162 0.0 1.0 0.00 0.00 0.00 75 1019.7
20260509101348 55 173 0.0 1.0 0.00 0.00 0.00 74 1019.7
20260509101331 55 176 0.0 1.0 0.00 0.00 0.00 75 1019.5
20260509101043 55 159 0.0 1.0 0.00 0.00 0.00 74 1019.7
20260509101012 55 173 0.0 1.0 0.00 0.00 0.00 74 1019.6
20260509100911 55 167 0.0 1.0 0.00 0.00 0.00 74 1019.6
20260509100811 55 177 0.0 1.0 0.00 0.00 0.00 73 1019.4
20260509100752 55 119 0.0 1.0 0.00 0.00 0.00 73 1019.7
20260509100737 55 142 0.0 1.0 0.00 0.00 0.00 73 1019.8
20260509100724 55 144 0.0 1.0 0.00 0.00 0.00 73 1019.8
20260509100412 55 174 0.0 2.0 0.00 0.00 0.00 74 1019.9
20260509100346 55 165 0.0 2.0 0.00 0.00 0.00 74 1019.7
20260509100331 55 127 0.0 2.0 0.00 0.00 0.00 74 1019.8
20260509100056 55 178 0.0 2.0 0.00 0.00 0.00 75 1019.7
20260509100012 55 172 0.0 2.0 0.00 0.00 0.00 75 1019.6
20260509095911 55 167 0.0 2.0 0.00 0.00 0.00 75 1019.7
20260509095811 55 157 0.0 2.0 0.00 0.00 0.00 75 1019.6
20260509095710 55 180 0.0 2.0 0.00 0.00 0.00 76 1019.5
20260509095612 55 132 0.0 2.0 0.00 0.00 0.00 75 1019.7
20260509095543 55 174 0.0 2.0 0.00 0.00 0.00 75 1019.7
20260509095511 55 143 0.0 1.0 0.00 0.00 0.00 76 1019.5
20260509095412 55 168 0.0 1.0 0.00 0.00 0.00 76 1019.5
20260509095312 55 163 0.0 1.0 0.00 0.00 0.00 76 1019.5
20260509095211 55 153 0.0 1.0 0.00 0.00 0.00 76 1019.7
20260509095111 55 181 0.0 1.0 0.00 0.00 0.00 75 1019.7
20260509095058 55 179 0.0 2.0 0.00 0.00 0.00 76 1019.7
20260509095047 55 176 0.0 2.0 0.00 0.00 0.00 76 1019.5
20260509095031 55 172 0.0 2.0 0.00 0.00 0.00 75 1019.7
20260509094746 55 120 0.0 2.0 0.00 0.00 0.00 74 1019.6
20260509094731 55 165 0.0 2.0 0.00 0.00 0.00 75 1019.6
20260509094719 55 158 0.0 2.0 0.00 0.00 0.00 75 1019.6
20260509094710 55 172 0.0 2.0 0.00 0.00 0.00 75 1019.5
20260509094653 55 163 0.0 2.0 0.00 0.00 0.00 75 1019.7
20260509094111 55 113 1.0 2.0 0.00 0.00 0.00 74 1019.5
20260509094043 55 172 0.0 1.0 0.00 0.00 0.00 74 1019.5
20260509094011 55 167 0.0 1.0 0.00 0.00 0.00 74 1019.6
20260509093912 55 175 0.0 1.0 0.00 0.00 0.00 74 1019.8
20260509093811 55 168 0.0 1.0 0.00 0.00 0.00 74 1019.4
20260509093711 55 89 0.0 1.0 0.00 0.00 0.00 73 1019.6
20260509093611 55 97 0.0 1.0 0.00 0.00 0.00 73 1019.7
20260509093545 55 168 0.0 1.0 0.00 0.00 0.00 73 1019.7
20260509093511 55 181 0.0 1.0 0.00 0.00 0.00 73 1019.6
20260509093412 55 180 0.0 1.0 0.00 0.00 0.00 74 1019.6
20260509093310 55 191 0.0 1.0 0.00 0.00 0.00 74 1019.6
20260509093213 55 74 0.0 1.0 0.00 0.00 0.00 74 1019.5
20260509093112 55 161 0.0 1.0 0.00 0.00 0.00 74 1019.5
20260509093043 55 180 0.0 1.0 0.00 0.00 0.00 74 1019.5
20260509093012 55 174 0.0 1.0 0.00 0.00 0.00 74 1019.4
20260509092912 55 168 0.0 1.0 0.00 0.00 0.00 74 1019.4
20260509092811 55 133 0.0 1.0 0.00 0.00 0.00 74 1019.6
20260509092711 55 151 0.0 1.0 0.00 0.00 0.00 74 1019.7
20260509092611 55 163 0.0 1.0 0.00 0.00 0.00 73 1019.5
20260509092544 55 127 0.0 1.0 0.00 0.00 0.00 74 1019.5
20260509092512 55 181 0.0 1.0 0.00 0.00 0.00 73 1019.6
20260509092411 55 162 0.0 1.0 0.00 0.00 0.00 74 1019.9
20260509092311 55 172 0.0 1.0 0.00 0.00 0.00 74 1019.7
20260509092211 55 167 0.0 1.0 0.00 0.00 0.00 75 1019.8
20260509092112 55 162 0.0 1.0 0.00 0.00 0.00 74 1019.8
20260509092044 55 172 0.0 1.0 0.00 0.00 0.00 74 1019.8
20260509092011 55 162 0.0 1.0 0.00 0.00 0.00 74 1019.8
20260509091912 55 179 0.0 1.0 0.00 0.00 0.00 74 1019.7
20260509091812 55 175 0.0 3.0 0.00 0.00 0.00 74 1019.8
20260509091754 55 178 0.0 3.0 0.00 0.00 0.00 74 1019.7
20260509091738 55 140 0.0 3.0 0.00 0.00 0.00 74 1019.6
20260509091725 55 150 0.0 3.0 0.00 0.00 0.00 74 1019.6
20260509091411 55 176 0.0 7.0 0.00 0.00 0.00 73 1019.6
20260509091259 55 175 0.0 7.0 0.00 0.00 0.00 73 1019.4
20260509091159 55 176 0.0 7.0 0.00 0.00 0.00 73 1019.7
20260509091059 55 171 0.0 7.0 0.00 0.00 0.00 73 1019.7
20260509091043 55 171 0.0 7.0 0.00 0.00 0.00 74 1019.7
20260509090959 55 159 0.0 7.0 0.00 0.00 0.00 73 1019.4
20260509090859 55 55 1.0 7.0 0.00 0.00 0.00 73 1019.4
20260509090759 55 170 0.0 7.0 0.00 0.00 0.00 74 1019.5
20260509090741 55 174 0.0 7.0 0.00 0.00 0.00 74 1019.8
20260509090725 55 164 0.0 7.0 0.00 0.00 0.00 74 1019.7
20260509090713 55 151 0.0 7.0 0.00 0.00 0.00 74 1019.7
20260509090359 55 82 1.0 3.0 0.00 0.00 0.00 74 1019.7
20260509090300 55 171 0.0 3.0 0.00 0.00 0.00 74 1019.4
20260509090200 55 146 0.0 3.0 0.00 0.00 0.00 74 1019.5
20260509090110 55 180 0.0 3.0 0.00 0.00 0.00 75 1019.5
20260509090058 54 178 0.0 3.0 0.00 0.00 0.00 74 1019.5
20260509085959 54 161 0.0 3.0 0.00 0.00 0.00 74 1019.5
20260509085858 55 119 0.0 3.0 0.00 0.00 0.00 74 1019.6
20260509085830 55 55 1.0 3.0 0.00 0.00 0.00 74 1019.8
20260509085814 55 177 0.0 3.0 0.00 0.00 0.00 74 1019.7
20260509085547 55 40 1.0 3.0 0.00 0.00 0.00 74 1019.6
20260509085436 55 142 0.0 1.0 0.00 0.00 0.00 75 1019.6
20260509085337 55 175 0.0 0.0 0.00 0.00 0.00 76 1019.5
20260509085320 55 171 0.0 0.0 0.00 0.00 0.00 76 1019.4
20260509085306 55 172 0.0 0.0 0.00 0.00 0.00 76 1019.4
20260509085035 55 170 0.0 0.0 0.00 0.00 0.00 76 1019.5
20260509084741 55 161 0.0 1.0 0.00 0.00 0.00 75 1019.4
20260509084428 55 128 0.0 1.0 0.00 0.00 0.00 75 1019.5
20260509084328 55 170 0.0 1.0 0.00 0.00 0.00 77 1019.2
20260509084228 55 179 0.0 0.0 0.00 0.00 0.00 77 1019.5
20260509084130 55 175 0.0 0.0 0.00 0.00 0.00 77 1019.5
20260509084114 55 135 0.0 0.0 0.00 0.00 0.00 77 1019.5
20260509084104 55 152 0.0 0.0 0.00 0.00 0.00 76 1019.3
20260509084048 55 176 0.0 0.0 0.00 0.00 0.00 76 1019.6
20260509083728 55 156 0.0 0.0 0.00 0.00 0.00 75 1019.6
20260509083628 56 148 0.0 0.0 0.00 0.00 0.00 75 1019.4
20260509083548 56 162 0.0 0.0 0.00 0.00 0.00 76 1019.4
20260509083528 56 129 0.0 0.0 0.00 0.00 0.00 76 1019.5
20260509083505 56 181 0.0 0.0 0.00 0.00 0.00 76 1019.6
20260509083449 56 171 0.0 1.0 0.00 0.00 0.00 76 1019.4
20260509083433 55 175 0.0 1.0 0.00 0.00 0.00 76 1019.4
20260509083417 55 161 0.0 1.0 0.00 0.00 0.00 76 1019.3
20260509083403 55 181 0.0 1.0 0.00 0.00 0.00 76 1019.3
20260509082846 55 167 0.0 1.0 0.00 0.00 0.00 75 1019.5
20260509082840 55 179 0.0 1.0 0.00 0.00 0.00 75 1019.4
20260509082823 55 182 0.0 1.0 0.00 0.00 0.00 75 1019.5
20260509082807 55 176 0.0 1.0 0.00 0.00 0.00 76 1019.5
20260509082527 55 123 0.0 1.0 0.00 0.00 0.00 75 1019.5
20260509082428 55 199 0.0 1.0 0.00 0.00 0.00 75 1019.4
20260509082327 55 175 0.0 1.0 0.00 0.00 0.00 76 1019.3